| time (UTC) | temp C | wind direction | speed KPH | gust KPH | rain 1hr cm | rain 24hr cm | rain mn cm | humidity % | barometer mb |
| 20260504050704 | 18 | 36 | 4.8 | 9.7 | 0.00 | 0.00 | 0.00 | 62 | 1017.6 |
| 20260504050604 | 18 | 36 | 4.8 | 9.7 | 0.00 | 0.00 | 0.00 | 62 | 1017.5 |
| 20260504050504 | 18 | 36 | 4.8 | 9.7 | 0.00 | 0.00 | 0.00 | 62 | 1017.6 |
| 20260504050404 | 18 | 32 | 4.8 | 9.7 | 0.00 | 0.00 | 0.00 | 62 | 1017.5 |
| 20260504050304 | 18 | 33 | 3.2 | 9.7 | 0.00 | 0.00 | 0.00 | 62 | 1017.5 |
| 20260504050204 | 18 | 36 | 3.2 | 9.7 | 0.00 | 0.00 | 0.00 | 62 | 1017.5 |
| 20260504050104 | 18 | 36 | 3.2 | 9.7 | 0.00 | 0.00 | 0.00 | 62 | 1017.6 |
| 20260504050004 | 18 | 30 | 3.2 | 11.3 | 0.00 | 0.00 | 0.00 | 62 | 1017.6 |
| 20260504045904 | 18 | 29 | 3.2 | 11.3 | 0.00 | 0.00 | 0.00 | 62 | 1017.6 |
| 20260504045825 | 18 | 29 | 3.2 | 11.3 | 0.00 | 0.00 | 0.00 | 62 | 1017.6 |
| 20260504045704 | 18 | 24 | 3.2 | 11.3 | 0.00 | 0.00 | 0.00 | 62 | 1017.6 |
| 20260504045604 | 18 | 24 | 3.2 | 11.3 | 0.00 | 0.00 | 0.00 | 62 | 1017.5 |
| 20260504045525 | 18 | 24 | 3.2 | 12.9 | 0.00 | 0.00 | 0.00 | 62 | 1017.5 |
| 20260504045404 | 18 | 26 | 3.2 | 12.9 | 0.00 | 0.00 | 0.00 | 62 | 1017.6 |
| 20260504045304 | 18 | 24 | 4.8 | 12.9 | 0.00 | 0.00 | 0.00 | 62 | 1017.6 |
| 20260504045204 | 18 | 28 | 4.8 | 12.9 | 0.00 | 0.00 | 0.00 | 62 | 1017.6 |
| 20260504045104 | 18 | 26 | 6.4 | 12.9 | 0.00 | 0.00 | 0.00 | 62 | 1017.7 |
| 20260504045004 | 18 | 32 | 4.8 | 12.9 | 0.00 | 0.00 | 0.00 | 62 | 1017.7 |
| 20260504044904 | 18 | 31 | 4.8 | 12.9 | 0.00 | 0.00 | 0.00 | 63 | 1017.7 |
| 20260504044825 | 18 | 31 | 4.8 | 12.9 | 0.00 | 0.00 | 0.00 | 63 | 1017.7 |
| 20260504044704 | 18 | 31 | 4.8 | 12.9 | 0.00 | 0.00 | 0.00 | 63 | 1017.7 |
| 20260504044604 | 18 | 29 | 3.2 | 12.9 | 0.00 | 0.00 | 0.00 | 63 | 1017.8 |
| 20260504044504 | 18 | 29 | 3.2 | 12.9 | 0.00 | 0.00 | 0.00 | 63 | 1017.8 |
| 20260504044404 | 18 | 31 | 3.2 | 12.9 | 0.00 | 0.00 | 0.00 | 63 | 1017.8 |
| 20260504044304 | 18 | 37 | 1.6 | 12.9 | 0.00 | 0.00 | 0.00 | 63 | 1017.8 |
| 20260504044205 | 18 | 34 | 1.6 | 12.9 | 0.00 | 0.00 | 0.00 | 63 | 1017.8 |
| 20260504044104 | 18 | 38 | 1.6 | 11.3 | 0.00 | 0.00 | 0.00 | 63 | 1017.8 |
| 20260504044004 | 18 | 35 | 1.6 | 11.3 | 0.00 | 0.00 | 0.00 | 63 | 1017.8 |
| 20260504043904 | 18 | 25 | 1.6 | 16.1 | 0.00 | 0.00 | 0.00 | 63 | 1017.7 |
| 20260504043825 | 18 | 12 | 1.6 | 16.1 | 0.00 | 0.00 | 0.00 | 63 | 1017.7 |
| 20260504043725 | 18 | 12 | 1.6 | 16.1 | 0.00 | 0.00 | 0.00 | 63 | 1017.7 |
| 20260504043604 | 18 | 13 | 1.6 | 16.1 | 0.00 | 0.00 | 0.00 | 63 | 1017.7 |
| 20260504043504 | 18 | 13 | 1.6 | 16.1 | 0.00 | 0.00 | 0.00 | 63 | 1017.7 |
| 20260504043404 | 18 | 14 | 1.6 | 16.1 | 0.00 | 0.00 | 0.00 | 63 | 1017.8 |
| 20260504043304 | 18 | 353 | 1.6 | 16.1 | 0.00 | 0.00 | 0.00 | 63 | 1017.7 |
| 20260504043204 | 18 | 343 | 1.6 | 16.1 | 0.00 | 0.00 | 0.00 | 63 | 1017.7 |
| 20260504043104 | 18 | 347 | 3.2 | 16.1 | 0.00 | 0.00 | 0.00 | 63 | 1017.7 |
| 20260504043025 | 18 | 354 | 3.2 | 16.1 | 0.00 | 0.00 | 0.00 | 63 | 1017.7 |
| 20260504042904 | 19 | 2 | 3.2 | 14.5 | 0.00 | 0.00 | 0.00 | 63 | 1017.8 |
| 20260504042825 | 19 | 360 | 4.8 | 14.5 | 0.00 | 0.00 | 0.00 | 63 | 1017.8 |
| 20260504042725 | 19 | 360 | 4.8 | 14.5 | 0.00 | 0.00 | 0.00 | 63 | 1017.8 |
| 20260504042604 | 19 | 1 | 4.8 | 14.5 | 0.00 | 0.00 | 0.00 | 63 | 1017.8 |
| 20260504042504 | 19 | 4 | 4.8 | 14.5 | 0.00 | 0.00 | 0.00 | 63 | 1017.8 |
| 20260504042404 | 19 | 4 | 4.8 | 14.5 | 0.00 | 0.00 | 0.00 | 63 | 1017.9 |
| 20260504042304 | 19 | 9 | 4.8 | 14.5 | 0.00 | 0.00 | 0.00 | 63 | 1017.9 |
| 20260504042204 | 19 | 12 | 6.4 | 14.5 | 0.00 | 0.00 | 0.00 | 63 | 1018.0 |
| 20260504042104 | 19 | 14 | 4.8 | 14.5 | 0.00 | 0.00 | 0.00 | 63 | 1017.9 |
| 20260504042004 | 19 | 11 | 4.8 | 14.5 | 0.00 | 0.00 | 0.00 | 63 | 1017.9 |
| 20260504041925 | 19 | 6 | 4.8 | 14.5 | 0.00 | 0.00 | 0.00 | 63 | 1017.9 |
| 20260504041804 | 19 | 17 | 3.2 | 14.5 | 0.00 | 0.00 | 0.00 | 64 | 1018.0 |
| 20260504041704 | 19 | 21 | 3.2 | 14.5 | 0.00 | 0.00 | 0.00 | 64 | 1017.9 |
| 20260504041604 | 19 | 20 | 3.2 | 16.1 | 0.00 | 0.00 | 0.00 | 64 | 1017.9 |
| 20260504041504 | 19 | 15 | 3.2 | 16.1 | 0.00 | 0.00 | 0.00 | 64 | 1018.0 |
| 20260504041404 | 19 | 10 | 3.2 | 16.1 | 0.00 | 0.00 | 0.00 | 64 | 1017.9 |
| 20260504041304 | 19 | 13 | 1.6 | 16.1 | 0.00 | 0.00 | 0.00 | 64 | 1017.9 |
| 20260504041225 | 19 | 7 | 1.6 | 16.1 | 0.00 | 0.00 | 0.00 | 64 | 1017.9 |
| 20260504041104 | 19 | 357 | 1.6 | 16.1 | 0.00 | 0.00 | 0.00 | 64 | 1017.9 |
| 20260504041025 | 19 | 355 | 1.6 | 16.1 | 0.00 | 0.00 | 0.00 | 64 | 1017.9 |
| 20260504040904 | 19 | 351 | 1.6 | 16.1 | 0.00 | 0.00 | 0.00 | 64 | 1017.9 |
| 20260504040825 | 19 | 346 | 1.6 | 16.1 | 0.00 | 0.00 | 0.00 | 64 | 1018.0 |
| 20260504040704 | 19 | 354 | 1.6 | 16.1 | 0.00 | 0.00 | 0.00 | 64 | 1018.0 |
| 20260504040625 | 19 | 355 | 1.6 | 16.1 | 0.00 | 0.00 | 0.00 | 64 | 1018.0 |
| 20260504040504 | 19 | 353 | 3.2 | 16.1 | 0.00 | 0.00 | 0.00 | 64 | 1017.9 |
| 20260504040404 | 19 | 1 | 3.2 | 16.1 | 0.00 | 0.00 | 0.00 | 64 | 1017.9 |
| 20260504040325 | 19 | 4 | 3.2 | 16.1 | 0.00 | 0.00 | 0.00 | 64 | 1017.9 |
| 20260504040204 | 19 | 8 | 4.8 | 16.1 | 0.00 | 0.00 | 0.00 | 64 | 1017.9 |
| 20260504040104 | 19 | 10 | 4.8 | 16.1 | 0.00 | 0.00 | 0.00 | 64 | 1017.9 |
| 20260504040004 | 19 | 9 | 6.4 | 16.1 | 0.00 | 0.00 | 0.00 | 64 | 1017.9 |
| 20260504035904 | 19 | 8 | 6.4 | 16.1 | 0.00 | 0.00 | 0.00 | 64 | 1018.0 |
| 20260504035804 | 19 | 6 | 6.4 | 16.1 | 0.00 | 0.00 | 0.00 | 64 | 1018.0 |
| 20260504035704 | 19 | 6 | 6.4 | 16.1 | 0.00 | 0.00 | 0.00 | 64 | 1018.0 |
| 20260504035604 | 19 | 9 | 4.8 | 16.1 | 0.00 | 0.00 | 0.00 | 64 | 1018.0 |
| 20260504035504 | 19 | 3 | 4.8 | 16.1 | 0.00 | 0.00 | 0.00 | 63 | 1018.0 |
| 20260504035425 | 19 | 359 | 6.4 | 14.5 | 0.00 | 0.00 | 0.00 | 63 | 1018.0 |
| 20260504035305 | 20 | 352 | 6.4 | 16.1 | 0.00 | 0.00 | 0.00 | 63 | 1018.0 |
| 20260504035205 | 20 | 350 | 6.4 | 16.1 | 0.00 | 0.00 | 0.00 | 63 | 1018.0 |
| 20260504035104 | 20 | 346 | 6.4 | 16.1 | 0.00 | 0.00 | 0.00 | 63 | 1018.0 |
| 20260504035004 | 20 | 345 | 4.8 | 16.1 | 0.00 | 0.00 | 0.00 | 63 | 1018.0 |
| 20260504034904 | 20 | 341 | 4.8 | 16.1 | 0.00 | 0.00 | 0.00 | 63 | 1017.9 |
| 20260504034825 | 20 | 341 | 3.2 | 16.1 | 0.00 | 0.00 | 0.00 | 62 | 1017.9 |
| 20260504034704 | 20 | 342 | 4.8 | 16.1 | 0.00 | 0.00 | 0.00 | 62 | 1017.9 |
| 20260504034604 | 20 | 343 | 4.8 | 16.1 | 0.00 | 0.00 | 0.00 | 62 | 1017.9 |
| 20260504034504 | 20 | 347 | 3.2 | 16.1 | 0.00 | 0.00 | 0.00 | 61 | 1017.9 |
| 20260504034404 | 20 | 347 | 3.2 | 14.5 | 0.00 | 0.00 | 0.00 | 61 | 1017.9 |
| 20260504034325 | 20 | 342 | 3.2 | 11.3 | 0.00 | 0.00 | 0.00 | 61 | 1017.9 |
| 20260504034204 | 20 | 327 | 1.6 | 11.3 | 0.00 | 0.00 | 0.00 | 61 | 1017.9 |
| 20260504034104 | 20 | 323 | 1.6 | 9.7 | 0.00 | 0.00 | 0.00 | 61 | 1017.8 |
| 20260504034004 | 20 | 320 | 1.6 | 9.7 | 0.00 | 0.00 | 0.00 | 61 | 1017.8 |
| 20260504033904 | 20 | 320 | 1.6 | 9.7 | 0.00 | 0.00 | 0.00 | 60 | 1017.8 |
| 20260504033804 | 20 | 320 | 1.6 | 9.7 | 0.00 | 0.00 | 0.00 | 60 | 1017.8 |
| 20260504033704 | 20 | 319 | 1.6 | 9.7 | 0.00 | 0.00 | 0.00 | 60 | 1017.8 |
| 20260504033604 | 20 | 310 | 1.6 | 9.7 | 0.00 | 0.00 | 0.00 | 60 | 1017.8 |
| 20260504033504 | 20 | 312 | 1.6 | 9.7 | 0.00 | 0.00 | 0.00 | 60 | 1017.7 |
| 20260504033404 | 20 | 311 | 1.6 | 9.7 | 0.00 | 0.00 | 0.00 | 59 | 1017.8 |
| 20260504033304 | 20 | 303 | 0.0 | 9.7 | 0.00 | 0.00 | 0.00 | 59 | 1017.7 |
| 20260504033204 | 20 | 333 | 0.0 | 8.0 | 0.00 | 0.00 | 0.00 | 59 | 1017.7 |
| 20260504033104 | 20 | 318 | 0.0 | 8.0 | 0.00 | 0.00 | 0.00 | 59 | 1017.7 |
| 20260504033004 | 20 | 311 | 0.0 | 8.0 | 0.00 | 0.00 | 0.00 | 59 | 1017.7 |
| 20260504032904 | 20 | 315 | 1.6 | 8.0 | 0.00 | 0.00 | 0.00 | 59 | 1017.7 |
| 20260504032804 | 20 | 329 | 1.6 | 14.5 | 0.00 | 0.00 | 0.00 | 58 | 1017.7 |
| 20260504032704 | 20 | 332 | 1.6 | 14.5 | 0.00 | 0.00 | 0.00 | 58 | 1017.7 |
| 20260504032604 | 20 | 332 | 1.6 | 14.5 | 0.00 | 0.00 | 0.00 | 58 | 1017.7 |
| 20260504032504 | 20 | 332 | 1.6 | 14.5 | 0.00 | 0.00 | 0.00 | 58 | 1017.8 |
| 20260504032404 | 20 | 332 | 1.6 | 14.5 | 0.00 | 0.00 | 0.00 | 58 | 1017.8 |
| 20260504032304 | 20 | 330 | 1.6 | 14.5 | 0.00 | 0.00 | 0.00 | 58 | 1017.8 |
| 20260504032204 | 20 | 330 | 1.6 | 14.5 | 0.00 | 0.00 | 0.00 | 58 | 1017.8 |
| 20260504032104 | 20 | 332 | 1.6 | 14.5 | 0.00 | 0.00 | 0.00 | 58 | 1017.8 |
| 20260504032004 | 20 | 333 | 1.6 | 14.5 | 0.00 | 0.00 | 0.00 | 57 | 1017.8 |
| 20260504031904 | 20 | 337 | 1.6 | 14.5 | 0.00 | 0.00 | 0.00 | 57 | 1017.8 |
| 20260504031825 | 20 | 333 | 1.6 | 9.7 | 0.00 | 0.00 | 0.00 | 57 | 1017.8 |
| 20260504031704 | 20 | 322 | 0.0 | 9.7 | 0.00 | 0.00 | 0.00 | 58 | 1017.8 |
| 20260504031604 | 20 | 322 | 0.0 | 9.7 | 0.00 | 0.00 | 0.00 | 57 | 1017.8 |
| 20260504031525 | 20 | 322 | 0.0 | 9.7 | 0.00 | 0.00 | 0.00 | 57 | 1017.7 |
| 20260504031404 | 20 | 319 | 0.0 | 6.4 | 0.00 | 0.00 | 0.00 | 57 | 1017.7 |
| 20260504031304 | 20 | 319 | 0.0 | 6.4 | 0.00 | 0.00 | 0.00 | 57 | 1017.7 |
| 20260504031204 | 20 | 347 | 0.0 | 6.4 | 0.00 | 0.00 | 0.00 | 57 | 1017.7 |
| 20260504031104 | 20 | 355 | 0.0 | 6.4 | 0.00 | 0.00 | 0.00 | 57 | 1017.7 |
| 20260504031025 | 20 | 11 | 0.0 | 6.4 | 0.00 | 0.00 | 0.00 | 57 | 1017.7 |
| 20260504030904 | 20 | 21 | 0.0 | 8.0 | 0.00 | 0.00 | 0.00 | 57 | 1017.7 |
| 20260504030804 | 20 | 21 | 0.0 | 8.0 | 0.00 | 0.00 | 0.00 | 57 | 1017.7 |
| 20260504030704 | 20 | 19 | 1.6 | 8.0 | 0.00 | 0.00 | 0.00 | 57 | 1017.7 |
| 20260504030604 | 20 | 6 | 1.6 | 8.0 | 0.00 | 0.00 | 0.00 | 57 | 1017.7 |
| 20260504030525 | 20 | 358 | 1.6 | 8.0 | 0.00 | 0.00 | 0.00 | 57 | 1017.7 |
| 20260504030404 | 20 | 356 | 1.6 | 8.0 | 0.00 | 0.00 | 0.00 | 57 | 1017.7 |
| 20260504030304 | 20 | 356 | 1.6 | 8.0 | 0.00 | 0.00 | 0.00 | 57 | 1017.7 |
| 20260504030225 | 20 | 356 | 1.6 | 8.0 | 0.00 | 0.00 | 0.00 | 57 | 1017.6 |
| 20260504030104 | 20 | 351 | 1.6 | 8.0 | 0.00 | 0.00 | 0.00 | 56 | 1017.6 |
| 20260504030004 | 21 | 336 | 1.6 | 6.4 | 0.00 | 0.00 | 0.00 | 57 | 1017.6 |
| 20260504025904 | 21 | 336 | 1.6 | 6.4 | 0.00 | 0.00 | 0.00 | 57 | 1017.6 |
| 20260504025804 | 21 | 336 | 1.6 | 6.4 | 0.00 | 0.00 | 0.00 | 56 | 1017.6 |
| 20260504025704 | 21 | 336 | 1.6 | 6.4 | 0.00 | 0.00 | 0.00 | 56 | 1017.5 |
| 20260504025604 | 21 | 333 | 0.0 | 6.4 | 0.00 | 0.00 | 0.00 | 56 | 1017.6 |
| 20260504025504 | 21 | 331 | 0.0 | 1.6 | 0.00 | 0.00 | 0.00 | 56 | 1017.6 |
| 20260504025404 | 21 | 0 | 0.0 | 0.0 | 0.00 | 0.00 | 0.00 | 56 | 1017.7 |
| 20260504025304 | 21 | 329 | 0.0 | 3.2 | 0.00 | 0.00 | 0.00 | 56 | 1017.7 |
| 20260504025204 | 21 | 329 | 0.0 | 3.2 | 0.00 | 0.00 | 0.00 | 56 | 1017.8 |
| 20260504025104 | 21 | 329 | 0.0 | 3.2 | 0.00 | 0.00 | 0.00 | 56 | 1017.8 |
| 20260504025004 | 21 | 329 | 0.0 | 3.2 | 0.00 | 0.00 | 0.00 | 56 | 1017.7 |
| 20260504024925 | 21 | 329 | 0.0 | 3.2 | 0.00 | 0.00 | 0.00 | 56 | 1017.7 |
| 20260504024804 | 21 | 329 | 0.0 | 3.2 | 0.00 | 0.00 | 0.00 | 56 | 1017.7 |
| 20260504024704 | 21 | 333 | 0.0 | 6.4 | 0.00 | 0.00 | 0.00 | 56 | 1017.7 |
| 20260504024604 | 21 | 332 | 0.0 | 6.4 | 0.00 | 0.00 | 0.00 | 56 | 1017.7 |
| 20260504024504 | 21 | 332 | 0.0 | 6.4 | 0.00 | 0.00 | 0.00 | 56 | 1017.7 |
| 20260504024404 | 21 | 332 | 0.0 | 6.4 | 0.00 | 0.00 | 0.00 | 56 | 1017.7 |
| 20260504024304 | 21 | 333 | 0.0 | 6.4 | 0.00 | 0.00 | 0.00 | 56 | 1017.7 |
| 20260504024225 | 21 | 333 | 0.0 | 6.4 | 0.00 | 0.00 | 0.00 | 56 | 1017.7 |
| 20260504024105 | 21 | 333 | 0.0 | 6.4 | 0.00 | 0.00 | 0.00 | 56 | 1017.7 |
| 20260504024004 | 21 | 333 | 0.0 | 6.4 | 0.00 | 0.00 | 0.00 | 56 | 1017.6 |
| 20260504023925 | 21 | 333 | 0.0 | 6.4 | 0.00 | 0.00 | 0.00 | 56 | 1017.6 |
| 20260504023804 | 21 | 333 | 0.0 | 6.4 | 0.00 | 0.00 | 0.00 | 56 | 1017.5 |
| 20260504023725 | 21 | 333 | 0.0 | 6.4 | 0.00 | 0.00 | 0.00 | 56 | 1017.5 |
| 20260504023604 | 21 | 0 | 0.0 | 0.0 | 0.00 | 0.00 | 0.00 | 56 | 1017.5 |
| 20260504023525 | 21 | 0 | 0.0 | 0.0 | 0.00 | 0.00 | 0.00 | 56 | 1017.4 |
| 20260504023425 | 21 | 0 | 0.0 | 0.0 | 0.00 | 0.00 | 0.00 | 56 | 1017.4 |
| 20260504023304 | 21 | 0 | 0.0 | 0.0 | 0.00 | 0.00 | 0.00 | 56 | 1017.5 |
| 20260504023204 | 21 | 0 | 0.0 | 0.0 | 0.00 | 0.00 | 0.00 | 56 | 1017.5 |
| 20260504023104 | 21 | 0 | 0.0 | 0.0 | 0.00 | 0.00 | 0.00 | 56 | 1017.5 |
| 20260504023004 | 21 | 0 | 0.0 | 0.0 | 0.00 | 0.00 | 0.00 | 56 | 1017.6 |
| 20260504022904 | 21 | 336 | 0.0 | 1.6 | 0.00 | 0.00 | 0.00 | 56 | 1017.6 |
| 20260504022804 | 21 | 336 | 0.0 | 1.6 | 0.00 | 0.00 | 0.00 | 56 | 1017.6 |
| 20260504022704 | 21 | 336 | 0.0 | 1.6 | 0.00 | 0.00 | 0.00 | 56 | 1017.6 |
| 20260504022625 | 21 | 336 | 0.0 | 1.6 | 0.00 | 0.00 | 0.00 | 56 | 1017.6 |
| 20260504022504 | 21 | 336 | 0.0 | 1.6 | 0.00 | 0.00 | 0.00 | 56 | 1017.7 |
| 20260504022404 | 21 | 336 | 0.0 | 1.6 | 0.00 | 0.00 | 0.00 | 56 | 1017.7 |
| 20260504022305 | 21 | 336 | 0.0 | 1.6 | 0.00 | 0.00 | 0.00 | 56 | 1017.7 |
| 20260504022204 | 21 | 335 | 0.0 | 4.8 | 0.00 | 0.00 | 0.00 | 56 | 1017.7 |
| 20260504022104 | 21 | 335 | 0.0 | 4.8 | 0.00 | 0.00 | 0.00 | 56 | 1017.6 |
| 20260504022004 | 21 | 335 | 0.0 | 4.8 | 0.00 | 0.00 | 0.00 | 55 | 1017.6 |
| 20260504021925 | 21 | 335 | 0.0 | 4.8 | 0.00 | 0.00 | 0.00 | 55 | 1017.6 |
| 20260504021804 | 21 | 335 | 0.0 | 4.8 | 0.00 | 0.00 | 0.00 | 55 | 1017.6 |
| 20260504021704 | 21 | 335 | 0.0 | 4.8 | 0.00 | 0.00 | 0.00 | 55 | 1017.6 |
| 20260504021604 | 21 | 335 | 0.0 | 4.8 | 0.00 | 0.00 | 0.00 | 54 | 1017.6 |
| 20260504021504 | 21 | 335 | 0.0 | 4.8 | 0.00 | 0.00 | 0.00 | 54 | 1017.5 |
| 20260504021426 | 21 | 335 | 0.0 | 4.8 | 0.00 | 0.00 | 0.00 | 54 | 1017.5 |
| 20260504021304 | 21 | 335 | 0.0 | 4.8 | 0.00 | 0.00 | 0.00 | 54 | 1017.5 |
| 20260504021205 | 21 | 335 | 0.0 | 3.2 | 0.00 | 0.00 | 0.00 | 54 | 1017.5 |
| 20260504021104 | 21 | 0 | 0.0 | 0.0 | 0.00 | 0.00 | 0.00 | 54 | 1017.5 |
| 20260504021004 | 21 | 0 | 0.0 | 0.0 | 0.00 | 0.00 | 0.00 | 54 | 1017.5 |
| 20260504020925 | 21 | 0 | 0.0 | 0.0 | 0.00 | 0.00 | 0.00 | 54 | 1017.5 |
| 20260504020804 | 21 | 0 | 0.0 | 0.0 | 0.00 | 0.00 | 0.00 | 54 | 1017.5 |
| 20260504020725 | 21 | 0 | 0.0 | 0.0 | 0.00 | 0.00 | 0.00 | 54 | 1017.4 |
| 20260504020604 | 21 | 0 | 0.0 | 0.0 | 0.00 | 0.00 | 0.00 | 54 | 1017.4 |
| 20260504020504 | 21 | 0 | 0.0 | 0.0 | 0.00 | 0.00 | 0.00 | 54 | 1017.4 |
| 20260504020404 | 21 | 0 | 0.0 | 0.0 | 0.00 | 0.00 | 0.00 | 54 | 1017.3 |
| 20260504020304 | 21 | 0 | 0.0 | 0.0 | 0.00 | 0.00 | 0.00 | 54 | 1017.3 |
| 20260504020204 | 21 | 0 | 0.0 | 0.0 | 0.00 | 0.00 | 0.00 | 54 | 1017.3 |
| 20260504020104 | 21 | 0 | 0.0 | 0.0 | 0.00 | 0.00 | 0.00 | 53 | 1017.3 |
| 20260504020004 | 21 | 0 | 0.0 | 0.0 | 0.00 | 0.00 | 0.00 | 54 | 1017.2 |
| 20260504015904 | 21 | 0 | 0.0 | 0.0 | 0.00 | 0.00 | 0.00 | 54 | 1017.2 |
| 20260504015804 | 21 | 0 | 0.0 | 0.0 | 0.00 | 0.00 | 0.00 | 54 | 1017.2 |
| 20260504015704 | 21 | 0 | 0.0 | 0.0 | 0.00 | 0.00 | 0.00 | 54 | 1017.2 |
| 20260504015604 | 21 | 0 | 0.0 | 0.0 | 0.00 | 0.00 | 0.00 | 54 | 1017.1 |
| 20260504015504 | 21 | 0 | 0.0 | 0.0 | 0.00 | 0.00 | 0.00 | 54 | 1017.1 |
| 20260504015404 | 21 | 0 | 0.0 | 0.0 | 0.00 | 0.00 | 0.00 | 54 | 1017.1 |
| 20260504015304 | 21 | 0 | 0.0 | 0.0 | 0.00 | 0.00 | 0.00 | 54 | 1017.1 |
| 20260504015204 | 21 | 0 | 0.0 | 0.0 | 0.00 | 0.00 | 0.00 | 54 | 1017.0 |
| 20260504015104 | 21 | 0 | 0.0 | 0.0 | 0.00 | 0.00 | 0.00 | 54 | 1017.0 |
| 20260504015004 | 21 | 0 | 0.0 | 0.0 | 0.00 | 0.00 | 0.00 | 54 | 1017.0 |
| 20260504014904 | 21 | 0 | 0.0 | 0.0 | 0.00 | 0.00 | 0.00 | 54 | 1017.0 |
| 20260504014825 | 21 | 0 | 0.0 | 0.0 | 0.00 | 0.00 | 0.00 | 54 | 1017.0 |
| 20260504014704 | 21 | 0 | 0.0 | 0.0 | 0.00 | 0.00 | 0.00 | 54 | 1017.0 |
| 20260504014604 | 21 | 0 | 0.0 | 0.0 | 0.00 | 0.00 | 0.00 | 54 | 1017.0 |
| 20260504014525 | 21 | 0 | 0.0 | 0.0 | 0.00 | 0.00 | 0.00 | 54 | 1016.9 |
| 20260504014404 | 21 | 0 | 0.0 | 0.0 | 0.00 | 0.00 | 0.00 | 54 | 1016.9 |
| 20260504014325 | 21 | 0 | 0.0 | 0.0 | 0.00 | 0.00 | 0.00 | 54 | 1016.9 |
| 20260504014204 | 22 | 0 | 0.0 | 0.0 | 0.00 | 0.00 | 0.00 | 54 | 1016.9 |
| 20260504014104 | 22 | 0 | 0.0 | 0.0 | 0.00 | 0.00 | 0.00 | 54 | 1016.9 |
| 20260504014025 | 22 | 0 | 0.0 | 0.0 | 0.00 | 0.00 | 0.00 | 53 | 1017.0 |
| 20260504013925 | 22 | 0 | 0.0 | 1.6 | 0.00 | 0.00 | 0.00 | 53 | 1017.0 |
| 20260504013804 | 22 | 0 | 0.0 | 1.6 | 0.00 | 0.00 | 0.00 | 53 | 1017.0 |
| 20260504013704 | 22 | 0 | 0.0 | 1.6 | 0.00 | 0.00 | 0.00 | 53 | 1017.0 |
| 20260504013625 | 22 | 0 | 0.0 | 1.6 | 0.00 | 0.00 | 0.00 | 53 | 1017.0 |
| 20260504013504 | 22 | 0 | 0.0 | 1.6 | 0.00 | 0.00 | 0.00 | 52 | 1017.0 |
| 20260504013404 | 22 | 0 | 0.0 | 1.6 | 0.00 | 0.00 | 0.00 | 52 | 1017.0 |
| 20260504013304 | 22 | 0 | 0.0 | 1.6 | 0.00 | 0.00 | 0.00 | 52 | 1017.0 |
| 20260504013204 | 22 | 0 | 0.0 | 1.6 | 0.00 | 0.00 | 0.00 | 52 | 1017.0 |
| 20260504013104 | 22 | 0 | 0.0 | 1.6 | 0.00 | 0.00 | 0.00 | 52 | 1016.9 |
| 20260504013025 | 22 | 0 | 0.0 | 1.6 | 0.00 | 0.00 | 0.00 | 52 | 1016.9 |
| 20260504012925 | 22 | 333 | 0.0 | 3.2 | 0.00 | 0.00 | 0.00 | 51 | 1016.9 |
| 20260504012804 | 22 | 333 | 0.0 | 3.2 | 0.00 | 0.00 | 0.00 | 51 | 1016.8 |
| 20260504012704 | 22 | 333 | 0.0 | 3.2 | 0.00 | 0.00 | 0.00 | 51 | 1016.9 |
| 20260504012604 | 22 | 333 | 0.0 | 3.2 | 0.00 | 0.00 | 0.00 | 51 | 1016.9 |
| 20260504012504 | 22 | 333 | 0.0 | 3.2 | 0.00 | 0.00 | 0.00 | 51 | 1016.9 |
| 20260504012404 | 22 | 333 | 0.0 | 3.2 | 0.00 | 0.00 | 0.00 | 51 | 1017.0 |
| 20260504012304 | 22 | 333 | 0.0 | 3.2 | 0.00 | 0.00 | 0.00 | 51 | 1017.0 |
| 20260504012204 | 22 | 333 | 0.0 | 3.2 | 0.00 | 0.00 | 0.00 | 51 | 1017.0 |
| 20260504012125 | 22 | 333 | 0.0 | 3.2 | 0.00 | 0.00 | 0.00 | 51 | 1017.0 |
| 20260504012004 | 22 | 333 | 0.0 | 3.2 | 0.00 | 0.00 | 0.00 | 50 | 1017.0 |
| 20260504011925 | 22 | 333 | 0.0 | 3.2 | 0.00 | 0.00 | 0.00 | 50 | 1017.0 |
| 20260504011825 | 22 | 333 | 0.0 | 3.2 | 0.00 | 0.00 | 0.00 | 50 | 1016.9 |
| 20260504011704 | 22 | 333 | 0.0 | 3.2 | 0.00 | 0.00 | 0.00 | 50 | 1017.0 |
| 20260504011604 | 22 | 333 | 0.0 | 3.2 | 0.00 | 0.00 | 0.00 | 50 | 1017.0 |
| 20260504011504 | 22 | 333 | 0.0 | 3.2 | 0.00 | 0.00 | 0.00 | 50 | 1017.0 |
| 20260504011404 | 22 | 333 | 0.0 | 3.2 | 0.00 | 0.00 | 0.00 | 49 | 1017.0 |
| 20260504011304 | 22 | 0 | 0.0 | 0.0 | 0.00 | 0.00 | 0.00 | 49 | 1017.0 |
| 20260504011204 | 22 | 0 | 0.0 | 0.0 | 0.00 | 0.00 | 0.00 | 49 | 1017.0 |
| 20260504011104 | 23 | 333 | 0.0 | 6.4 | 0.00 | 0.00 | 0.00 | 49 | 1017.0 |
| 20260504011004 | 23 | 333 | 0.0 | 6.4 | 0.00 | 0.00 | 0.00 | 49 | 1017.0 |
| 20260504010904 | 23 | 333 | 0.0 | 6.4 | 0.00 | 0.00 | 0.00 | 49 | 1017.0 |
| 20260504010804 | 23 | 333 | 0.0 | 6.4 | 0.00 | 0.00 | 0.00 | 49 | 1017.0 |
| 20260504010704 | 23 | 333 | 0.0 | 6.4 | 0.00 | 0.00 | 0.00 | 49 | 1017.0 |
| 20260504010604 | 23 | 333 | 0.0 | 6.4 | 0.00 | 0.00 | 0.00 | 48 | 1017.0 |
| 20260504010504 | 23 | 333 | 0.0 | 6.4 | 0.00 | 0.00 | 0.00 | 48 | 1017.0 |
| 20260504010425 | 23 | 334 | 0.0 | 6.4 | 0.00 | 0.00 | 0.00 | 48 | 1017.0 |
| 20260504010304 | 23 | 334 | 0.0 | 6.4 | 0.00 | 0.00 | 0.00 | 48 | 1016.9 |
| 20260504010204 | 23 | 333 | 0.0 | 6.4 | 0.00 | 0.00 | 0.00 | 48 | 1016.9 |
| 20260504010104 | 23 | 334 | 0.0 | 4.8 | 0.00 | 0.00 | 0.00 | 48 | 1016.9 |
| 20260504010004 | 23 | 333 | 0.0 | 4.8 | 0.00 | 0.00 | 0.00 | 48 | 1016.9 |
| 20260504005904 | 23 | 333 | 0.0 | 4.8 | 0.00 | 0.00 | 0.00 | 47 | 1016.9 |
| 20260504005804 | 23 | 332 | 0.0 | 4.8 | 0.00 | 0.00 | 0.00 | 47 | 1016.9 |
| 20260504005704 | 23 | 329 | 0.0 | 4.8 | 0.00 | 0.00 | 0.00 | 47 | 1016.9 |
| 20260504005604 | 23 | 329 | 0.0 | 4.8 | 0.00 | 0.00 | 0.00 | 47 | 1016.9 |
| 20260504005504 | 23 | 329 | 0.0 | 4.8 | 0.00 | 0.00 | 0.00 | 47 | 1016.9 |
| 20260504005425 | 23 | 327 | 0.0 | 4.8 | 0.00 | 0.00 | 0.00 | 47 | 1016.9 |
| 20260504005305 | 23 | 327 | 0.0 | 4.8 | 0.00 | 0.00 | 0.00 | 47 | 1017.0 |
| 20260504005204 | 23 | 326 | 0.0 | 4.8 | 0.00 | 0.00 | 0.00 | 47 | 1016.9 |
| 20260504005104 | 23 | 344 | 0.0 | 4.8 | 0.00 | 0.00 | 0.00 | 46 | 1016.9 |
| 20260504005004 | 23 | 1 | 0.0 | 6.4 | 0.00 | 0.00 | 0.00 | 46 | 1016.9 |
| 20260504004904 | 23 | 1 | 0.0 | 6.4 | 0.00 | 0.00 | 0.00 | 46 | 1016.9 |
| 20260504004825 | 23 | 1 | 0.0 | 6.4 | 0.00 | 0.00 | 0.00 | 46 | 1016.9 |
| 20260504004725 | 23 | 5 | 0.0 | 6.4 | 0.00 | 0.00 | 0.00 | 46 | 1016.9 |
| 20260504004604 | 23 | 21 | 0.0 | 6.4 | 0.00 | 0.00 | 0.00 | 45 | 1016.9 |
| 20260504004525 | 23 | 21 | 0.0 | 6.4 | 0.00 | 0.00 | 0.00 | 45 | 1016.9 |
| 20260504004404 | 23 | 21 | 0.0 | 6.4 | 0.00 | 0.00 | 0.00 | 45 | 1016.9 |
| 20260504004304 | 24 | 21 | 0.0 | 6.4 | 0.00 | 0.00 | 0.00 | 45 | 1016.8 |
| 20260504004204 | 24 | 21 | 0.0 | 6.4 | 0.00 | 0.00 | 0.00 | 45 | 1016.9 |
| 20260504004104 | 24 | 20 | 0.0 | 6.4 | 0.00 | 0.00 | 0.00 | 45 | 1016.9 |
| 20260504004004 | 24 | 329 | 0.0 | 1.6 | 0.00 | 0.00 | 0.00 | 44 | 1016.8 |
| 20260504003904 | 24 | 329 | 0.0 | 1.6 | 0.00 | 0.00 | 0.00 | 44 | 1016.8 |
| 20260504003804 | 24 | 0 | 0.0 | 0.0 | 0.00 | 0.00 | 0.00 | 44 | 1016.8 |
| 20260504003704 | 24 | 0 | 0.0 | 0.0 | 0.00 | 0.00 | 0.00 | 44 | 1016.9 |
| 20260504003604 | 24 | 0 | 0.0 | 0.0 | 0.00 | 0.00 | 0.00 | 44 | 1016.9 |
| 20260504003504 | 24 | 347 | 0.0 | 8.0 | 0.00 | 0.00 | 0.00 | 44 | 1016.9 |
| 20260504003404 | 24 | 29 | 0.0 | 8.0 | 0.00 | 0.00 | 0.00 | 44 | 1016.9 |
| 20260504003304 | 24 | 44 | 0.0 | 8.0 | 0.00 | 0.00 | 0.00 | 44 | 1017.0 |
| 20260504003225 | 24 | 44 | 0.0 | 8.0 | 0.00 | 0.00 | 0.00 | 44 | 1016.9 |
| 20260504003125 | 24 | 43 | 1.6 | 8.0 | 0.00 | 0.00 | 0.00 | 44 | 1016.9 |
| 20260504003004 | 25 | 43 | 1.6 | 8.0 | 0.00 | 0.00 | 0.00 | 44 | 1017.0 |
| 20260504002904 | 25 | 43 | 1.6 | 8.0 | 0.00 | 0.00 | 0.00 | 43 | 1017.0 |
| 20260504002804 | 25 | 43 | 1.6 | 8.0 | 0.00 | 0.00 | 0.00 | 43 | 1017.0 |
| 20260504002704 | 25 | 36 | 1.6 | 8.0 | 0.00 | 0.00 | 0.00 | 44 | 1017.0 |
| 20260504002625 | 25 | 36 | 1.6 | 8.0 | 0.00 | 0.00 | 0.00 | 43 | 1017.0 |
| 20260504002504 | 25 | 27 | 1.6 | 8.0 | 0.00 | 0.00 | 0.00 | 43 | 1017.0 |
| 20260504002404 | 25 | 23 | 0.0 | 8.0 | 0.00 | 0.00 | 0.00 | 43 | 1017.0 |
| 20260504002304 | 25 | 12 | 1.6 | 8.0 | 0.00 | 0.00 | 0.00 | 44 | 1017.0 |
| 20260504002204 | 25 | 16 | 1.6 | 8.0 | 0.00 | 0.00 | 0.00 | 43 | 1017.0 |
| 20260504002104 | 25 | 13 | 1.6 | 12.9 | 0.00 | 0.00 | 0.00 | 43 | 1017.1 |
| 20260504002004 | 25 | 17 | 1.6 | 12.9 | 0.00 | 0.00 | 0.00 | 43 | 1017.1 |
| 20260504001904 | 25 | 17 | 1.6 | 12.9 | 0.00 | 0.00 | 0.00 | 43 | 1017.1 |
| 20260504001804 | 25 | 17 | 1.6 | 12.9 | 0.00 | 0.00 | 0.00 | 43 | 1017.0 |
| 20260504001704 | 25 | 19 | 1.6 | 12.9 | 0.00 | 0.00 | 0.00 | 43 | 1017.1 |
| 20260504001604 | 25 | 21 | 1.6 | 12.9 | 0.00 | 0.00 | 0.00 | 42 | 1017.1 |
| 20260504001504 | 25 | 31 | 1.6 | 12.9 | 0.00 | 0.00 | 0.00 | 42 | 1017.1 |
| 20260504001425 | 25 | 30 | 1.6 | 12.9 | 0.00 | 0.00 | 0.00 | 43 | 1017.1 |
| 20260504001304 | 25 | 30 | 1.6 | 12.9 | 0.00 | 0.00 | 0.00 | 42 | 1017.2 |
| 20260504001225 | 25 | 27 | 1.6 | 12.9 | 0.00 | 0.00 | 0.00 | 42 | 1017.2 |
| 20260504001104 | 25 | 38 | 0.0 | 8.0 | 0.00 | 0.00 | 0.00 | 43 | 1017.3 |
| 20260504001025 | 25 | 37 | 1.6 | 8.0 | 0.00 | 0.00 | 0.00 | 43 | 1017.2 |
| 20260504000904 | 25 | 29 | 1.6 | 12.9 | 0.00 | 0.00 | 0.00 | 43 | 1017.3 |
| 20260504000804 | 25 | 31 | 1.6 | 12.9 | 0.00 | 0.00 | 0.00 | 43 | 1017.3 |
| 20260504000704 | 25 | 35 | 1.6 | 16.1 | 0.00 | 0.00 | 0.00 | 43 | 1017.3 |
| 20260504000604 | 25 | 36 | 1.6 | 16.1 | 0.00 | 0.00 | 0.00 | 43 | 1017.3 |
| 20260504000525 | 25 | 36 | 1.6 | 16.1 | 0.00 | 0.00 | 0.00 | 43 | 1017.3 |
| 20260504000425 | 25 | 36 | 1.6 | 16.1 | 0.00 | 0.00 | 0.00 | 43 | 1017.3 |
| 20260504000304 | 25 | 35 | 1.6 | 16.1 | 0.00 | 0.00 | 0.00 | 43 | 1017.4 |
| 20260504000204 | 25 | 37 | 1.6 | 16.1 | 0.00 | 0.00 | 0.00 | 43 | 1017.4 |
| 20260504000125 | 25 | 37 | 3.2 | 16.1 | 0.00 | 0.00 | 0.00 | 43 | 1017.4 |
| 20260504000004 | 25 | 37 | 1.6 | 16.1 | 0.00 | 0.00 | 0.00 | 43 | 1017.4 |
| 20260503235904 | 25 | 41 | 1.6 | 16.1 | 0.00 | 0.00 | 0.00 | 42 | 1017.4 |
| 20260503235825 | 25 | 41 | 1.6 | 16.1 | 0.00 | 0.00 | 0.00 | 42 | 1017.4 |
| 20260503235704 | 25 | 40 | 1.6 | 12.9 | 0.00 | 0.00 | 0.00 | 43 | 1017.4 |
| 20260503235604 | 25 | 40 | 1.6 | 12.9 | 0.00 | 0.00 | 0.00 | 42 | 1017.4 |
| 20260503235525 | 25 | 40 | 1.6 | 12.9 | 0.00 | 0.00 | 0.00 | 42 | 1017.3 |
| 20260503235404 | 25 | 40 | 1.6 | 12.9 | 0.00 | 0.00 | 0.00 | 43 | 1017.4 |
| 20260503235304 | 25 | 41 | 1.6 | 12.9 | 0.00 | 0.00 | 0.00 | 43 | 1017.3 |
| 20260503235204 | 25 | 40 | 1.6 | 12.9 | 0.00 | 0.00 | 0.00 | 42 | 1017.3 |
| 20260503235104 | 25 | 45 | 0.0 | 8.0 | 0.00 | 0.00 | 0.00 | 43 | 1017.3 |
| 20260503235004 | 25 | 43 | 0.0 | 8.0 | 0.00 | 0.00 | 0.00 | 43 | 1017.3 |
| 20260503234925 | 25 | 42 | 0.0 | 8.0 | 0.00 | 0.00 | 0.00 | 43 | 1017.3 |
| 20260503234804 | 25 | 43 | 0.0 | 8.0 | 0.00 | 0.00 | 0.00 | 42 | 1017.3 |
| 20260503234704 | 25 | 342 | 0.0 | 1.6 | 0.00 | 0.00 | 0.00 | 42 | 1017.4 |
| 20260503234604 | 25 | 342 | 0.0 | 1.6 | 0.00 | 0.00 | 0.00 | 42 | 1017.4 |
| 20260503234525 | 25 | 342 | 0.0 | 1.6 | 0.00 | 0.00 | 0.00 | 42 | 1017.4 |
| 20260503234404 | 25 | 9 | 0.0 | 1.6 | 0.00 | 0.00 | 0.00 | 42 | 1017.4 |
| 20260503234304 | 25 | 9 | 0.0 | 1.6 | 0.00 | 0.00 | 0.00 | 41 | 1017.4 |
| 20260503234204 | 25 | 9 | 0.0 | 1.6 | 0.00 | 0.00 | 0.00 | 40 | 1017.4 |
| 20260503234104 | 25 | 9 | 0.0 | 1.6 | 0.00 | 0.00 | 0.00 | 41 | 1017.4 |
| 20260503234004 | 25 | 359 | 0.0 | 1.6 | 0.00 | 0.00 | 0.00 | 40 | 1017.5 |
| 20260503233925 | 25 | 3 | 0.0 | 1.6 | 0.00 | 0.00 | 0.00 | 40 | 1017.5 |
| 20260503233804 | 25 | 3 | 0.0 | 1.6 | 0.00 | 0.00 | 0.00 | 40 | 1017.5 |
| 20260503233704 | 25 | 3 | 0.0 | 1.6 | 0.00 | 0.00 | 0.00 | 40 | 1017.5 |
| 20260503233604 | 25 | 3 | 0.0 | 1.6 | 0.00 | 0.00 | 0.00 | 41 | 1017.6 |
| 20260503233504 | 25 | 355 | 0.0 | 1.6 | 0.00 | 0.00 | 0.00 | 41 | 1017.6 |
| 20260503233425 | 25 | 355 | 0.0 | 1.6 | 0.00 | 0.00 | 0.00 | 41 | 1017.5 |
| 20260503233304 | 25 | 334 | 0.0 | 1.6 | 0.00 | 0.00 | 0.00 | 41 | 1017.5 |
| 20260503233204 | 25 | 334 | 0.0 | 1.6 | 0.00 | 0.00 | 0.00 | 40 | 1017.6 |
| 20260503233104 | 25 | 334 | 0.0 | 1.6 | 0.00 | 0.00 | 0.00 | 40 | 1017.5 |
| 20260503233004 | 25 | 0 | 0.0 | 1.6 | 0.00 | 0.00 | 0.00 | 40 | 1017.5 |
| 20260503232904 | 25 | 0 | 0.0 | 1.6 | 0.00 | 0.00 | 0.00 | 41 | 1017.5 |
| 20260503232804 | 25 | 0 | 0.0 | 1.6 | 0.00 | 0.00 | 0.00 | 42 | 1017.5 |
| 20260503232704 | 25 | 0 | 0.0 | 1.6 | 0.00 | 0.00 | 0.00 | 41 | 1017.5 |
| 20260503232604 | 25 | 0 | 0.0 | 1.6 | 0.00 | 0.00 | 0.00 | 41 | 1017.5 |
| 20260503232504 | 25 | 0 | 0.0 | 1.6 | 0.00 | 0.00 | 0.00 | 41 | 1017.5 |
| 20260503232404 | 25 | 0 | 0.0 | 1.6 | 0.00 | 0.00 | 0.00 | 41 | 1017.5 |
| 20260503232305 | 25 | 0 | 0.0 | 1.6 | 0.00 | 0.00 | 0.00 | 41 | 1017.6 |
| 20260503232204 | 25 | 0 | 0.0 | 14.5 | 0.00 | 0.00 | 0.00 | 41 | 1017.6 |
| 20260503232104 | 25 | 14 | 0.0 | 14.5 | 0.00 | 0.00 | 0.00 | 41 | 1017.6 |
| 20260503232004 | 25 | 14 | 0.0 | 14.5 | 0.00 | 0.00 | 0.00 | 40 | 1017.6 |
| 20260503231925 | 25 | 14 | 0.0 | 14.5 | 0.00 | 0.00 | 0.00 | 40 | 1017.5 |
| 20260503231804 | 25 | 5 | 0.0 | 14.5 | 0.00 | 0.00 | 0.00 | 39 | 1017.5 |
| 20260503231704 | 25 | 357 | 0.0 | 14.5 | 0.00 | 0.00 | 0.00 | 39 | 1017.5 |
| 20260503231604 | 25 | 349 | 0.0 | 14.5 | 0.00 | 0.00 | 0.00 | 39 | 1017.4 |
| 20260503231504 | 25 | 356 | 0.0 | 14.5 | 0.00 | 0.00 | 0.00 | 39 | 1017.4 |
| 20260503231404 | 25 | 344 | 1.6 | 14.5 | 0.00 | 0.00 | 0.00 | 39 | 1017.4 |
| 20260503231304 | 25 | 2 | 1.6 | 14.5 | 0.00 | 0.00 | 0.00 | 38 | 1017.4 |
| 20260503231225 | 25 | 5 | 3.2 | 16.1 | 0.00 | 0.00 | 0.00 | 38 | 1017.4 |
| 20260503231104 | 26 | 2 | 3.2 | 16.1 | 0.00 | 0.00 | 0.00 | 38 | 1017.4 |
| 20260503231004 | 26 | 2 | 3.2 | 16.1 | 0.00 | 0.00 | 0.00 | 38 | 1017.4 |
| 20260503230904 | 26 | 10 | 3.2 | 16.1 | 0.00 | 0.00 | 0.00 | 38 | 1017.4 |
| 20260503230804 | 26 | 18 | 4.8 | 16.1 | 0.00 | 0.00 | 0.00 | 38 | 1017.4 |
| 20260503230704 | 26 | 22 | 4.8 | 16.1 | 0.00 | 0.00 | 0.00 | 39 | 1017.4 |
| 20260503230604 | 26 | 28 | 4.8 | 16.1 | 0.00 | 0.00 | 0.00 | 38 | 1017.3 |
| 20260503230504 | 26 | 30 | 4.8 | 16.1 | 0.00 | 0.00 | 0.00 | 37 | 1017.4 |
| 20260503230404 | 26 | 38 | 4.8 | 16.1 | 0.00 | 0.00 | 0.00 | 38 | 1017.4 |
| 20260503230304 | 26 | 34 | 4.8 | 16.1 | 0.00 | 0.00 | 0.00 | 38 | 1017.4 |
| 20260503230204 | 26 | 36 | 4.8 | 14.5 | 0.00 | 0.00 | 0.00 | 38 | 1017.4 |
| 20260503230125 | 26 | 42 | 4.8 | 12.9 | 0.00 | 0.00 | 0.00 | 39 | 1017.4 |
| 20260503230004 | 26 | 40 | 4.8 | 12.9 | 0.00 | 0.00 | 0.00 | 39 | 1017.4 |
| 20260503225904 | 26 | 38 | 4.8 | 12.9 | 0.00 | 0.00 | 0.00 | 38 | 1017.5 |
| 20260503225804 | 26 | 29 | 3.2 | 12.9 | 0.00 | 0.00 | 0.00 | 37 | 1017.6 |
| 20260503225704 | 26 | 25 | 4.8 | 12.9 | 0.00 | 0.00 | 0.00 | 37 | 1017.7 |
| 20260503225604 | 26 | 15 | 4.8 | 17.7 | 0.00 | 0.00 | 0.00 | 38 | 1017.6 |
| 20260503225504 | 26 | 13 | 4.8 | 17.7 | 0.00 | 0.00 | 0.00 | 38 | 1017.6 |
| 20260503225404 | 26 | 15 | 4.8 | 17.7 | 0.00 | 0.00 | 0.00 | 38 | 1017.5 |
| 20260503225304 | 26 | 17 | 6.4 | 17.7 | 0.00 | 0.00 | 0.00 | 38 | 1017.5 |
| 20260503225204 | 26 | 18 | 6.4 | 20.9 | 0.00 | 0.00 | 0.00 | 37 | 1017.4 |
| 20260503225104 | 26 | 21 | 8.0 | 20.9 | 0.00 | 0.00 | 0.00 | 38 | 1017.4 |
| 20260503225004 | 26 | 24 | 9.7 | 20.9 | 0.00 | 0.00 | 0.00 | 38 | 1017.4 |
| 20260503224904 | 26 | 23 | 9.7 | 20.9 | 0.00 | 0.00 | 0.00 | 37 | 1017.4 |
| 20260503224804 | 26 | 26 | 9.7 | 20.9 | 0.00 | 0.00 | 0.00 | 37 | 1017.5 |
| 20260503224725 | 26 | 28 | 9.7 | 20.9 | 0.00 | 0.00 | 0.00 | 38 | 1017.6 |
| 20260503224604 | 26 | 32 | 9.7 | 20.9 | 0.00 | 0.00 | 0.00 | 39 | 1017.7 |
| 20260503224504 | 26 | 34 | 9.7 | 20.9 | 0.00 | 0.00 | 0.00 | 38 | 1017.8 |
| 20260503224404 | 26 | 35 | 11.3 | 20.9 | 0.00 | 0.00 | 0.00 | 38 | 1017.8 |
| 20260503224304 | 26 | 34 | 11.3 | 20.9 | 0.00 | 0.00 | 0.00 | 37 | 1017.8 |
| 20260503224225 | 26 | 34 | 9.7 | 24.1 | 0.00 | 0.00 | 0.00 | 37 | 1017.8 |
| 20260503224104 | 26 | 34 | 9.7 | 24.1 | 0.00 | 0.00 | 0.00 | 37 | 1017.7 |
| 20260503224025 | 26 | 31 | 9.7 | 24.1 | 0.00 | 0.00 | 0.00 | 37 | 1017.8 |
| 20260503223904 | 26 | 31 | 9.7 | 24.1 | 0.00 | 0.00 | 0.00 | 38 | 1017.8 |
| 20260503223804 | 26 | 30 | 11.3 | 24.1 | 0.00 | 0.00 | 0.00 | 37 | 1017.8 |
| 20260503223725 | 26 | 30 | 11.3 | 24.1 | 0.00 | 0.00 | 0.00 | 39 | 1017.8 |
| 20260503223604 | 26 | 29 | 11.3 | 24.1 | 0.00 | 0.00 | 0.00 | 38 | 1017.9 |
| 20260503223504 | 26 | 28 | 11.3 | 24.1 | 0.00 | 0.00 | 0.00 | 38 | 1017.9 |
| 20260503223404 | 26 | 27 | 9.7 | 27.4 | 0.00 | 0.00 | 0.00 | 38 | 1017.9 |
| 20260503223304 | 26 | 27 | 8.0 | 27.4 | 0.00 | 0.00 | 0.00 | 38 | 1017.9 |
| 20260503223204 | 26 | 28 | 8.0 | 27.4 | 0.00 | 0.00 | 0.00 | 38 | 1017.9 |
| 20260503223104 | 26 | 24 | 8.0 | 27.4 | 0.00 | 0.00 | 0.00 | 38 | 1017.9 |
| 20260503223004 | 26 | 24 | 8.0 | 27.4 | 0.00 | 0.00 | 0.00 | 39 | 1017.8 |
| 20260503222925 | 26 | 22 | 6.4 | 27.4 | 0.00 | 0.00 | 0.00 | 39 | 1017.8 |
| 20260503222804 | 26 | 23 | 4.8 | 27.4 | 0.00 | 0.00 | 0.00 | 39 | 1017.8 |
| 20260503222704 | 26 | 20 | 4.8 | 27.4 | 0.00 | 0.00 | 0.00 | 39 | 1017.8 |
| 20260503222604 | 26 | 17 | 3.2 | 27.4 | 0.00 | 0.00 | 0.00 | 38 | 1017.8 |
| 20260503222504 | 26 | 8 | 1.6 | 27.4 | 0.00 | 0.00 | 0.00 | 39 | 1017.9 |
| 20260503222404 | 26 | 354 | 1.6 | 12.9 | 0.00 | 0.00 | 0.00 | 38 | 1017.9 |
| 20260503222304 | 26 | 11 | 3.2 | 17.7 | 0.00 | 0.00 | 0.00 | 38 | 1017.9 |
| 20260503222204 | 26 | 18 | 3.2 | 17.7 | 0.00 | 0.00 | 0.00 | 38 | 1017.9 |
| 20260503222104 | 26 | 25 | 3.2 | 17.7 | 0.00 | 0.00 | 0.00 | 39 | 1018.0 |
| 20260503222004 | 26 | 37 | 3.2 | 17.7 | 0.00 | 0.00 | 0.00 | 40 | 1018.0 |
| 20260503221904 | 26 | 38 | 1.6 | 17.7 | 0.00 | 0.00 | 0.00 | 39 | 1018.0 |
| 20260503221804 | 26 | 37 | 1.6 | 17.7 | 0.00 | 0.00 | 0.00 | 38 | 1018.0 |
| 20260503221704 | 26 | 36 | 1.6 | 17.7 | 0.00 | 0.00 | 0.00 | 38 | 1018.0 |
| 20260503221604 | 26 | 35 | 3.2 | 17.7 | 0.00 | 0.00 | 0.00 | 38 | 1018.1 |
| 20260503221525 | 26 | 38 | 3.2 | 17.7 | 0.00 | 0.00 | 0.00 | 39 | 1018.1 |
| 20260503221425 | 26 | 39 | 3.2 | 20.9 | 0.00 | 0.00 | 0.00 | 38 | 1018.1 |
| 20260503221304 | 26 | 40 | 1.6 | 20.9 | 0.00 | 0.00 | 0.00 | 39 | 1018.1 |
| 20260503221204 | 26 | 44 | 1.6 | 20.9 | 0.00 | 0.00 | 0.00 | 38 | 1018.1 |
| 20260503221125 | 27 | 41 | 1.6 | 20.9 | 0.00 | 0.00 | 0.00 | 38 | 1018.1 |
| 20260503221004 | 27 | 38 | 1.6 | 20.9 | 0.00 | 0.00 | 0.00 | 38 | 1018.1 |
| 20260503220904 | 27 | 36 | 1.6 | 20.9 | 0.00 | 0.00 | 0.00 | 38 | 1018.1 |
| 20260503220825 | 26 | 36 | 1.6 | 20.9 | 0.00 | 0.00 | 0.00 | 39 | 1018.1 |
| 20260503220704 | 26 | 39 | 1.6 | 20.9 | 0.00 | 0.00 | 0.00 | 38 | 1018.1 |
| 20260503220604 | 26 | 39 | 1.6 | 20.9 | 0.00 | 0.00 | 0.00 | 39 | 1018.2 |
| 20260503220504 | 26 | 32 | 1.6 | 20.9 | 0.00 | 0.00 | 0.00 | 40 | 1018.1 |
| 20260503220404 | 26 | 18 | 1.6 | 12.9 | 0.00 | 0.00 | 0.00 | 38 | 1018.1 |
| 20260503220304 | 27 | 23 | 1.6 | 12.9 | 0.00 | 0.00 | 0.00 | 37 | 1018.1 |
| 20260503220225 | 27 | 24 | 1.6 | 12.9 | 0.00 | 0.00 | 0.00 | 37 | 1018.1 |
| 20260503220104 | 27 | 33 | 3.2 | 12.9 | 0.00 | 0.00 | 0.00 | 38 | 1018.1 |
| 20260503220004 | 27 | 38 | 3.2 | 17.7 | 0.00 | 0.00 | 0.00 | 39 | 1018.2 |
| 20260503215904 | 27 | 39 | 3.2 | 17.7 | 0.00 | 0.00 | 0.00 | 39 | 1018.1 |
| 20260503215804 | 26 | 39 | 3.2 | 17.7 | 0.00 | 0.00 | 0.00 | 40 | 1018.1 |
| 20260503215704 | 26 | 39 | 3.2 | 17.7 | 0.00 | 0.00 | 0.00 | 38 | 1018.2 |
| 20260503215604 | 26 | 40 | 3.2 | 17.7 | 0.00 | 0.00 | 0.00 | 39 | 1018.1 |
| 20260503215504 | 26 | 42 | 3.2 | 17.7 | 0.00 | 0.00 | 0.00 | 39 | 1018.1 |
| 20260503215404 | 26 | 43 | 1.6 | 17.7 | 0.00 | 0.00 | 0.00 | 38 | 1018.2 |
| 20260503215304 | 26 | 46 | 1.6 | 17.7 | 0.00 | 0.00 | 0.00 | 38 | 1018.2 |
| 20260503215204 | 26 | 49 | 1.6 | 17.7 | 0.00 | 0.00 | 0.00 | 37 | 1018.2 |
| 20260503215104 | 27 | 43 | 0.0 | 17.7 | 0.00 | 0.00 | 0.00 | 38 | 1018.2 |
| 20260503215004 | 26 | 9 | 1.6 | 11.3 | 0.00 | 0.00 | 0.00 | 39 | 1018.3 |
| 20260503214904 | 26 | 352 | 1.6 | 11.3 | 0.00 | 0.00 | 0.00 | 38 | 1018.2 |
| 20260503214804 | 26 | 11 | 1.6 | 14.5 | 0.00 | 0.00 | 0.00 | 37 | 1018.3 |
| 20260503214704 | 26 | 21 | 1.6 | 19.3 | 0.00 | 0.00 | 0.00 | 37 | 1018.3 |
| 20260503214604 | 27 | 20 | 1.6 | 19.3 | 0.00 | 0.00 | 0.00 | 38 | 1018.3 |
| 20260503214504 | 27 | 19 | 1.6 | 19.3 | 0.00 | 0.00 | 0.00 | 37 | 1018.4 |
| 20260503214404 | 27 | 16 | 3.2 | 19.3 | 0.00 | 0.00 | 0.00 | 36 | 1018.4 |
| 20260503214304 | 27 | 10 | 3.2 | 19.3 | 0.00 | 0.00 | 0.00 | 36 | 1018.4 |
| 20260503214204 | 27 | 9 | 4.8 | 19.3 | 0.00 | 0.00 | 0.00 | 36 | 1018.5 |
| 20260503214104 | 27 | 9 | 4.8 | 19.3 | 0.00 | 0.00 | 0.00 | 36 | 1018.6 |
| 20260503214004 | 27 | 10 | 3.2 | 19.3 | 0.00 | 0.00 | 0.00 | 37 | 1018.6 |
| 20260503213904 | 27 | 15 | 3.2 | 19.3 | 0.00 | 0.00 | 0.00 | 37 | 1018.6 |
| 20260503213804 | 27 | 9 | 3.2 | 19.3 | 0.00 | 0.00 | 0.00 | 37 | 1018.7 |
| 20260503213704 | 27 | 360 | 3.2 | 16.1 | 0.00 | 0.00 | 0.00 | 37 | 1018.6 |
| 20260503213604 | 27 | 360 | 3.2 | 16.1 | 0.00 | 0.00 | 0.00 | 37 | 1018.7 |
| 20260503213504 | 27 | 360 | 1.6 | 16.1 | 0.00 | 0.00 | 0.00 | 36 | 1018.7 |
| 20260503213404 | 27 | 353 | 1.6 | 16.1 | 0.00 | 0.00 | 0.00 | 36 | 1018.7 |
| 20260503213304 | 27 | 352 | 0.0 | 16.1 | 0.00 | 0.00 | 0.00 | 37 | 1018.7 |
| 20260503213204 | 27 | 356 | 0.0 | 16.1 | 0.00 | 0.00 | 0.00 | 38 | 1018.7 |
| 20260503213104 | 26 | 348 | 0.0 | 16.1 | 0.00 | 0.00 | 0.00 | 37 | 1018.8 |
| 20260503213004 | 26 | 2 | 0.0 | 6.4 | 0.00 | 0.00 | 0.00 | 37 | 1018.8 |
| 20260503212904 | 26 | 1 | 0.0 | 6.4 | 0.00 | 0.00 | 0.00 | 37 | 1018.7 |
| 20260503212804 | 26 | 336 | 0.0 | 6.4 | 0.00 | 0.00 | 0.00 | 38 | 1018.7 |
| 20260503212704 | 26 | 303 | 1.6 | 20.9 | 0.00 | 0.00 | 0.00 | 36 | 1018.7 |
| 20260503212604 | 26 | 308 | 1.6 | 20.9 | 0.00 | 0.00 | 0.00 | 36 | 1018.6 |
| 20260503212504 | 26 | 308 | 1.6 | 20.9 | 0.00 | 0.00 | 0.00 | 36 | 1018.7 |
| 20260503212404 | 26 | 311 | 1.6 | 20.9 | 0.00 | 0.00 | 0.00 | 35 | 1018.6 |
| 20260503212325 | 26 | 314 | 1.6 | 20.9 | 0.00 | 0.00 | 0.00 | 35 | 1018.7 |
| 20260503212204 | 26 | 317 | 1.6 | 20.9 | 0.00 | 0.00 | 0.00 | 35 | 1018.7 |
| 20260503212104 | 26 | 317 | 1.6 | 20.9 | 0.00 | 0.00 | 0.00 | 34 | 1018.7 |
| 20260503212004 | 26 | 320 | 1.6 | 20.9 | 0.00 | 0.00 | 0.00 | 35 | 1018.7 |
| 20260503211904 | 26 | 328 | 3.2 | 20.9 | 0.00 | 0.00 | 0.00 | 35 | 1018.8 |
| 20260503211804 | 26 | 334 | 3.2 | 20.9 | 0.00 | 0.00 | 0.00 | 34 | 1018.8 |
| 20260503211704 | 27 | 8 | 1.6 | 12.9 | 0.00 | 0.00 | 0.00 | 35 | 1018.9 |
| 20260503211625 | 27 | 39 | 1.6 | 9.7 | 0.00 | 0.00 | 0.00 | 34 | 1018.9 |
| 20260503211525 | 27 | 37 | 1.6 | 9.7 | 0.00 | 0.00 | 0.00 | 34 | 1019.0 |
| 20260503211404 | 27 | 32 | 1.6 | 9.7 | 0.00 | 0.00 | 0.00 | 33 | 1019.1 |
| 20260503211304 | 27 | 30 | 0.0 | 9.7 | 0.00 | 0.00 | 0.00 | 33 | 1019.1 |
| 20260503211204 | 27 | 28 | 0.0 | 9.7 | 0.00 | 0.00 | 0.00 | 33 | 1019.1 |
| 20260503211104 | 27 | 29 | 0.0 | 9.7 | 0.00 | 0.00 | 0.00 | 36 | 1019.2 |
| 20260503211004 | 27 | 35 | 0.0 | 8.0 | 0.00 | 0.00 | 0.00 | 35 | 1019.1 |
| 20260503210904 | 27 | 358 | 0.0 | 8.0 | 0.00 | 0.00 | 0.00 | 35 | 1019.1 |
| 20260503210804 | 27 | 334 | 0.0 | 8.0 | 0.00 | 0.00 | 0.00 | 36 | 1019.1 |
| 20260503210704 | 27 | 331 | 0.0 | 8.0 | 0.00 | 0.00 | 0.00 | 36 | 1019.2 |
| 20260503210604 | 27 | 342 | 1.6 | 12.9 | 0.00 | 0.00 | 0.00 | 37 | 1019.1 |
| 20260503210525 | 27 | 328 | 1.6 | 22.5 | 0.00 | 0.00 | 0.00 | 37 | 1019.2 |
| 20260503210404 | 26 | 321 | 1.6 | 22.5 | 0.00 | 0.00 | 0.00 | 36 | 1019.2 |
| 20260503210325 | 26 | 321 | 1.6 | 22.5 | 0.00 | 0.00 | 0.00 | 35 | 1019.2 |
| 20260503210204 | 26 | 321 | 1.6 | 22.5 | 0.00 | 0.00 | 0.00 | 35 | 1019.2 |
| 20260503210104 | 26 | 321 | 1.6 | 22.5 | 0.00 | 0.00 | 0.00 | 35 | 1019.2 |
| 20260503210005 | 26 | 322 | 1.6 | 22.5 | 0.00 | 0.00 | 0.00 | 34 | 1019.3 |
| 20260503205904 | 26 | 321 | 1.6 | 22.5 | 0.00 | 0.00 | 0.00 | 34 | 1019.3 |
| 20260503205804 | 26 | 320 | 1.6 | 22.5 | 0.00 | 0.00 | 0.00 | 34 | 1019.3 |
| 20260503205704 | 26 | 319 | 1.6 | 22.5 | 0.00 | 0.00 | 0.00 | 35 | 1019.2 |
| 20260503205604 | 26 | 310 | 1.6 | 22.5 | 0.00 | 0.00 | 0.00 | 35 | 1019.2 |
| 20260503205504 | 26 | 293 | 0.0 | 11.3 | 0.00 | 0.00 | 0.00 | 36 | 1019.2 |
| 20260503205404 | 26 | 304 | 0.0 | 11.3 | 0.00 | 0.00 | 0.00 | 37 | 1019.2 |
| 20260503205325 | 26 | 304 | 0.0 | 11.3 | 0.00 | 0.00 | 0.00 | 36 | 1019.2 |
| 20260503205204 | 26 | 304 | 0.0 | 11.3 | 0.00 | 0.00 | 0.00 | 35 | 1019.2 |
| 20260503205104 | 26 | 308 | 0.0 | 11.3 | 0.00 | 0.00 | 0.00 | 35 | 1019.2 |
| 20260503205004 | 26 | 304 | 0.0 | 11.3 | 0.00 | 0.00 | 0.00 | 36 | 1019.2 |
| 20260503204904 | 26 | 313 | 0.0 | 11.3 | 0.00 | 0.00 | 0.00 | 35 | 1019.2 |
| 20260503204804 | 26 | 322 | 0.0 | 11.3 | 0.00 | 0.00 | 0.00 | 34 | 1019.3 |
| 20260503204704 | 26 | 323 | 0.0 | 11.3 | 0.00 | 0.00 | 0.00 | 35 | 1019.4 |
| 20260503204604 | 26 | 331 | 1.6 | 11.3 | 0.00 | 0.00 | 0.00 | 35 | 1019.4 |
| 20260503204504 | 26 | 326 | 1.6 | 20.9 | 0.00 | 0.00 | 0.00 | 34 | 1019.4 |
| 20260503204404 | 26 | 332 | 3.2 | 20.9 | 0.00 | 0.00 | 0.00 | 34 | 1019.4 |
| 20260503204304 | 26 | 332 | 3.2 | 20.9 | 0.00 | 0.00 | 0.00 | 33 | 1019.4 |
| 20260503204204 | 26 | 332 | 3.2 | 20.9 | 0.00 | 0.00 | 0.00 | 33 | 1019.5 |
| 20260503204104 | 26 | 333 | 3.2 | 20.9 | 0.00 | 0.00 | 0.00 | 34 | 1019.5 |
| 20260503204004 | 26 | 334 | 3.2 | 20.9 | 0.00 | 0.00 | 0.00 | 34 | 1019.5 |
| 20260503203904 | 26 | 334 | 3.2 | 20.9 | 0.00 | 0.00 | 0.00 | 34 | 1019.6 |
| 20260503203804 | 26 | 334 | 1.6 | 20.9 | 0.00 | 0.00 | 0.00 | 34 | 1019.5 |
| 20260503203704 | 26 | 334 | 1.6 | 20.9 | 0.00 | 0.00 | 0.00 | 33 | 1019.5 |
| 20260503203604 | 26 | 339 | 1.6 | 20.9 | 0.00 | 0.00 | 0.00 | 34 | 1019.5 |
| 20260503203504 | 27 | 349 | 1.6 | 19.3 | 0.00 | 0.00 | 0.00 | 35 | 1019.6 |
| 20260503203425 | 27 | 20 | 1.6 | 16.1 | 0.00 | 0.00 | 0.00 | 36 | 1019.6 |
| 20260503203304 | 27 | 17 | 1.6 | 16.1 | 0.00 | 0.00 | 0.00 | 35 | 1019.6 |
| 20260503203204 | 27 | 17 | 1.6 | 16.1 | 0.00 | 0.00 | 0.00 | 36 | 1019.7 |
| 20260503203125 | 27 | 30 | 1.6 | 16.1 | 0.00 | 0.00 | 0.00 | 36 | 1019.7 |
| 20260503203025 | 27 | 39 | 1.6 | 16.1 | 0.00 | 0.00 | 0.00 | 36 | 1019.7 |
| 20260503202904 | 26 | 41 | 1.6 | 16.1 | 0.00 | 0.00 | 0.00 | 35 | 1019.8 |
| 20260503202804 | 27 | 37 | 1.6 | 16.1 | 0.00 | 0.00 | 0.00 | 35 | 1019.9 |
| 20260503202704 | 27 | 33 | 1.6 | 16.1 | 0.00 | 0.00 | 0.00 | 36 | 1019.9 |
| 20260503202604 | 27 | 28 | 1.6 | 16.1 | 0.00 | 0.00 | 0.00 | 36 | 1020.0 |
| 20260503202504 | 26 | 27 | 0.0 | 16.1 | 0.00 | 0.00 | 0.00 | 35 | 1019.9 |
| 20260503202404 | 26 | 20 | 0.0 | 11.3 | 0.00 | 0.00 | 0.00 | 34 | 1019.9 |
| 20260503202304 | 26 | 359 | 1.6 | 17.7 | 0.00 | 0.00 | 0.00 | 34 | 1019.9 |
| 20260503202225 | 26 | 352 | 1.6 | 19.3 | 0.00 | 0.00 | 0.00 | 35 | 1019.9 |
| 20260503202104 | 26 | 335 | 1.6 | 19.3 | 0.00 | 0.00 | 0.00 | 34 | 1019.9 |
| 20260503202025 | 26 | 329 | 1.6 | 19.3 | 0.00 | 0.00 | 0.00 | 34 | 1020.0 |
| 20260503201925 | 26 | 327 | 1.6 | 19.3 | 0.00 | 0.00 | 0.00 | 34 | 1020.0 |
| 20260503201804 | 26 | 330 | 1.6 | 19.3 | 0.00 | 0.00 | 0.00 | 35 | 1019.9 |
| 20260503201704 | 26 | 330 | 1.6 | 19.3 | 0.00 | 0.00 | 0.00 | 35 | 1020.0 |
| 20260503201604 | 26 | 330 | 1.6 | 19.3 | 0.00 | 0.00 | 0.00 | 35 | 1019.9 |
| 20260503201504 | 26 | 330 | 1.6 | 19.3 | 0.00 | 0.00 | 0.00 | 34 | 1019.9 |
| 20260503201404 | 26 | 330 | 1.6 | 19.3 | 0.00 | 0.00 | 0.00 | 35 | 1020.0 |
| 20260503201304 | 26 | 329 | 1.6 | 19.3 | 0.00 | 0.00 | 0.00 | 35 | 1020.0 |
| 20260503201204 | 26 | 323 | 1.6 | 14.5 | 0.00 | 0.00 | 0.00 | 35 | 1020.0 |
| 20260503201104 | 26 | 355 | 1.6 | 14.5 | 0.00 | 0.00 | 0.00 | 35 | 1020.0 |
| 20260503201004 | 26 | 14 | 1.6 | 14.5 | 0.00 | 0.00 | 0.00 | 36 | 1020.0 |
| 20260503200904 | 26 | 17 | 1.6 | 17.7 | 0.00 | 0.00 | 0.00 | 36 | 1020.1 |
| 20260503200825 | 26 | 21 | 1.6 | 17.7 | 0.00 | 0.00 | 0.00 | 35 | 1020.1 |
| 20260503200725 | 26 | 22 | 1.6 | 17.7 | 0.00 | 0.00 | 0.00 | 36 | 1020.1 |
| 20260503200604 | 26 | 24 | 1.6 | 17.7 | 0.00 | 0.00 | 0.00 | 36 | 1020.2 |
| 20260503200504 | 26 | 29 | 3.2 | 17.7 | 0.00 | 0.00 | 0.00 | 38 | 1020.1 |
| 20260503200404 | 26 | 35 | 3.2 | 17.7 | 0.00 | 0.00 | 0.00 | 40 | 1020.1 |
| 20260503200304 | 26 | 35 | 3.2 | 17.7 | 0.00 | 0.00 | 0.00 | 41 | 1020.1 |
| 20260503200225 | 26 | 35 | 3.2 | 17.7 | 0.00 | 0.00 | 0.00 | 41 | 1020.1 |
| 20260503200104 | 26 | 6 | 3.2 | 17.7 | 0.00 | 0.00 | 0.00 | 39 | 1020.2 |
| 20260503200004 | 26 | 359 | 3.2 | 17.7 | 0.00 | 0.00 | 0.00 | 39 | 1020.2 |
| 20260503195904 | 26 | 12 | 3.2 | 19.3 | 0.00 | 0.00 | 0.00 | 39 | 1020.2 |
| 20260503195805 | 26 | 14 | 3.2 | 20.9 | 0.00 | 0.00 | 0.00 | 40 | 1020.3 |
| 20260503195704 | 26 | 13 | 3.2 | 20.9 | 0.00 | 0.00 | 0.00 | 40 | 1020.3 |
| 20260503195604 | 26 | 13 | 3.2 | 20.9 | 0.00 | 0.00 | 0.00 | 40 | 1020.3 |
| 20260503195504 | 26 | 17 | 3.2 | 20.9 | 0.00 | 0.00 | 0.00 | 41 | 1020.4 |
| 20260503195404 | 26 | 15 | 3.2 | 20.9 | 0.00 | 0.00 | 0.00 | 42 | 1020.4 |
| 20260503195304 | 26 | 15 | 3.2 | 20.9 | 0.00 | 0.00 | 0.00 | 40 | 1020.3 |
| 20260503195204 | 26 | 16 | 3.2 | 20.9 | 0.00 | 0.00 | 0.00 | 40 | 1020.3 |
| 20260503195104 | 26 | 39 | 1.6 | 20.9 | 0.00 | 0.00 | 0.00 | 41 | 1020.2 |
| 20260503195003 | 26 | 35 | 1.6 | 20.9 | 0.00 | 0.00 | 0.00 | 40 | 1020.2 |
| 20260503194904 | 26 | 36 | 1.6 | 20.9 | 0.00 | 0.00 | 0.00 | 41 | 1020.2 |
| 20260503194825 | 26 | 46 | 1.6 | 12.9 | 0.00 | 0.00 | 0.00 | 40 | 1020.2 |
| 20260503194725 | 26 | 46 | 1.6 | 12.9 | 0.00 | 0.00 | 0.00 | 39 | 1020.2 |
| 20260503194604 | 26 | 45 | 1.6 | 12.9 | 0.00 | 0.00 | 0.00 | 39 | 1020.3 |
| 20260503194504 | 26 | 32 | 1.6 | 17.7 | 0.00 | 0.00 | 0.00 | 40 | 1020.3 |
| 20260503194404 | 26 | 35 | 1.6 | 17.7 | 0.00 | 0.00 | 0.00 | 40 | 1020.3 |
| 20260503194304 | 26 | 39 | 1.6 | 17.7 | 0.00 | 0.00 | 0.00 | 40 | 1020.4 |
| 20260503194204 | 26 | 35 | 3.2 | 17.7 | 0.00 | 0.00 | 0.00 | 41 | 1020.5 |
| 20260503194104 | 26 | 36 | 3.2 | 17.7 | 0.00 | 0.00 | 0.00 | 41 | 1020.5 |
| 20260503194004 | 26 | 39 | 3.2 | 17.7 | 0.00 | 0.00 | 0.00 | 42 | 1020.6 |
| 20260503193904 | 26 | 39 | 3.2 | 17.7 | 0.00 | 0.00 | 0.00 | 40 | 1020.5 |
| 20260503193804 | 26 | 34 | 3.2 | 17.7 | 0.00 | 0.00 | 0.00 | 39 | 1020.4 |
| 20260503193725 | 26 | 34 | 3.2 | 17.7 | 0.00 | 0.00 | 0.00 | 40 | 1020.4 |
| 20260503193604 | 26 | 30 | 4.8 | 17.7 | 0.00 | 0.00 | 0.00 | 39 | 1020.5 |
| 20260503193504 | 26 | 29 | 4.8 | 17.7 | 0.00 | 0.00 | 0.00 | 41 | 1020.6 |
| 20260503193404 | 26 | 28 | 3.2 | 17.7 | 0.00 | 0.00 | 0.00 | 40 | 1020.6 |
| 20260503193304 | 26 | 25 | 3.2 | 17.7 | 0.00 | 0.00 | 0.00 | 40 | 1020.5 |
| 20260503193225 | 26 | 27 | 3.2 | 17.7 | 0.00 | 0.00 | 0.00 | 40 | 1020.5 |
| 20260503193104 | 26 | 18 | 3.2 | 14.5 | 0.00 | 0.00 | 0.00 | 39 | 1020.6 |
| 20260503193004 | 26 | 16 | 3.2 | 14.5 | 0.00 | 0.00 | 0.00 | 39 | 1020.6 |
| 20260503192925 | 26 | 11 | 1.6 | 14.5 | 0.00 | 0.00 | 0.00 | 38 | 1020.6 |
| 20260503192804 | 26 | 8 | 1.6 | 14.5 | 0.00 | 0.00 | 0.00 | 38 | 1020.6 |
| 20260503192725 | 26 | 352 | 3.2 | 14.5 | 0.00 | 0.00 | 0.00 | 38 | 1020.7 |
| 20260503192604 | 26 | 344 | 3.2 | 12.9 | 0.00 | 0.00 | 0.00 | 39 | 1020.7 |
| 20260503192504 | 26 | 336 | 3.2 | 16.1 | 0.00 | 0.00 | 0.00 | 38 | 1020.7 |
| 20260503192404 | 26 | 345 | 3.2 | 16.1 | 0.00 | 0.00 | 0.00 | 39 | 1020.7 |
| 20260503192305 | 26 | 352 | 3.2 | 16.1 | 0.00 | 0.00 | 0.00 | 40 | 1020.7 |
| 20260503192204 | 26 | 354 | 3.2 | 16.1 | 0.00 | 0.00 | 0.00 | 39 | 1020.7 |
| 20260503192104 | 26 | 354 | 3.2 | 16.1 | 0.00 | 0.00 | 0.00 | 38 | 1020.7 |
| 20260503192004 | 26 | 355 | 3.2 | 16.1 | 0.00 | 0.00 | 0.00 | 41 | 1020.8 |
| 20260503191904 | 26 | 356 | 3.2 | 16.1 | 0.00 | 0.00 | 0.00 | 40 | 1020.7 |
| 20260503191804 | 26 | 358 | 3.2 | 16.1 | 0.00 | 0.00 | 0.00 | 39 | 1020.8 |
| 20260503191704 | 26 | 33 | 3.2 | 16.1 | 0.00 | 0.00 | 0.00 | 40 | 1020.9 |
| 20260503191603 | 26 | 36 | 1.6 | 16.1 | 0.00 | 0.00 | 0.00 | 40 | 1020.8 |
| 20260503191525 | 26 | 45 | 1.6 | 16.1 | 0.00 | 0.00 | 0.00 | 40 | 1020.9 |
| 20260503191404 | 26 | 48 | 1.6 | 16.1 | 0.00 | 0.00 | 0.00 | 40 | 1020.9 |
| 20260503191304 | 26 | 52 | 1.6 | 9.7 | 0.00 | 0.00 | 0.00 | 41 | 1020.9 |
| 20260503191204 | 26 | 57 | 1.6 | 9.7 | 0.00 | 0.00 | 0.00 | 40 | 1020.9 |
| 20260503191125 | 26 | 55 | 1.6 | 9.7 | 0.00 | 0.00 | 0.00 | 40 | 1020.9 |
| 20260503191004 | 26 | 54 | 1.6 | 9.7 | 0.00 | 0.00 | 0.00 | 39 | 1020.9 |
| 20260503190904 | 26 | 34 | 1.6 | 9.7 | 0.00 | 0.00 | 0.00 | 40 | 1021.0 |
| 20260503190804 | 26 | 11 | 1.6 | 17.7 | 0.00 | 0.00 | 0.00 | 41 | 1021.0 |
| 20260503190704 | 26 | 349 | 3.2 | 19.3 | 0.00 | 0.00 | 0.00 | 40 | 1021.0 |
| 20260503190604 | 26 | 2 | 3.2 | 20.9 | 0.00 | 0.00 | 0.00 | 39 | 1021.0 |
| 20260503190504 | 26 | 3 | 3.2 | 22.5 | 0.00 | 0.00 | 0.00 | 39 | 1021.0 |
| 20260503190404 | 26 | 1 | 3.2 | 22.5 | 0.00 | 0.00 | 0.00 | 38 | 1021.1 |
| 20260503190304 | 26 | 1 | 3.2 | 22.5 | 0.00 | 0.00 | 0.00 | 39 | 1021.0 |
| 20260503190204 | 26 | 360 | 3.2 | 22.5 | 0.00 | 0.00 | 0.00 | 38 | 1021.0 |
| 20260503190125 | 26 | 360 | 3.2 | 22.5 | 0.00 | 0.00 | 0.00 | 37 | 1021.0 |
| 20260503190004 | 26 | 360 | 3.2 | 22.5 | 0.00 | 0.00 | 0.00 | 40 | 1021.0 |
| 20260503185904 | 26 | 3 | 3.2 | 22.5 | 0.00 | 0.00 | 0.00 | 38 | 1021.0 |
| 20260503185825 | 26 | 8 | 3.2 | 22.5 | 0.00 | 0.00 | 0.00 | 39 | 1021.1 |
| 20260503185725 | 26 | 8 | 1.6 | 22.5 | 0.00 | 0.00 | 0.00 | 39 | 1021.1 |
| 20260503185604 | 26 | 2 | 0.0 | 22.5 | 0.00 | 0.00 | 0.00 | 40 | 1021.1 |
| 20260503185504 | 26 | 314 | 0.0 | 8.0 | 0.00 | 0.00 | 0.00 | 38 | 1021.2 |
| 20260503185404 | 26 | 11 | 0.0 | 6.4 | 0.00 | 0.00 | 0.00 | 39 | 1021.2 |
| 20260503185305 | 26 | 17 | 0.0 | 6.4 | 0.00 | 0.00 | 0.00 | 39 | 1021.2 |
| 20260503185204 | 26 | 20 | 0.0 | 8.0 | 0.00 | 0.00 | 0.00 | 39 | 1021.2 |
| 20260503185104 | 26 | 19 | 0.0 | 8.0 | 0.00 | 0.00 | 0.00 | 39 | 1021.2 |
| 20260503185004 | 26 | 22 | 0.0 | 8.0 | 0.00 | 0.00 | 0.00 | 39 | 1021.2 |
| 20260503184904 | 26 | 22 | 0.0 | 8.0 | 0.00 | 0.00 | 0.00 | 38 | 1021.2 |
| 20260503184804 | 26 | 24 | 0.0 | 8.0 | 0.00 | 0.00 | 0.00 | 38 | 1021.3 |
| 20260503184704 | 26 | 24 | 0.0 | 8.0 | 0.00 | 0.00 | 0.00 | 39 | 1021.3 |
| 20260503184604 | 26 | 24 | 0.0 | 8.0 | 0.00 | 0.00 | 0.00 | 38 | 1021.4 |
| 20260503184504 | 26 | 26 | 0.0 | 8.0 | 0.00 | 0.00 | 0.00 | 37 | 1021.4 |
| 20260503184425 | 26 | 12 | 0.0 | 8.0 | 0.00 | 0.00 | 0.00 | 37 | 1021.4 |
| 20260503184304 | 26 | 12 | 0.0 | 8.0 | 0.00 | 0.00 | 0.00 | 39 | 1021.4 |
| 20260503184204 | 26 | 13 | 0.0 | 8.0 | 0.00 | 0.00 | 0.00 | 40 | 1021.4 |
| 20260503184104 | 26 | 67 | 0.0 | 1.6 | 0.00 | 0.00 | 0.00 | 39 | 1021.3 |
| 20260503184004 | 26 | 0 | 0.0 | 1.6 | 0.00 | 0.00 | 0.00 | 39 | 1021.4 |
| 20260503183904 | 26 | 0 | 0.0 | 1.6 | 0.00 | 0.00 | 0.00 | 38 | 1021.4 |
| 20260503183804 | 26 | 0 | 0.0 | 1.6 | 0.00 | 0.00 | 0.00 | 39 | 1021.4 |
| 20260503183704 | 26 | 15 | 0.0 | 6.4 | 0.00 | 0.00 | 0.00 | 40 | 1021.5 |
| 20260503183604 | 26 | 1 | 0.0 | 11.3 | 0.00 | 0.00 | 0.00 | 39 | 1021.5 |
| 20260503183525 | 26 | 359 | 0.0 | 11.3 | 0.00 | 0.00 | 0.00 | 39 | 1021.5 |
| 20260503183425 | 26 | 359 | 0.0 | 11.3 | 0.00 | 0.00 | 0.00 | 39 | 1021.5 |
| 20260503183304 | 26 | 359 | 0.0 | 11.3 | 0.00 | 0.00 | 0.00 | 37 | 1021.5 |
| 20260503183225 | 26 | 359 | 0.0 | 11.3 | 0.00 | 0.00 | 0.00 | 38 | 1021.6 |
| 20260503183104 | 26 | 2 | 0.0 | 11.3 | 0.00 | 0.00 | 0.00 | 37 | 1021.6 |
| 20260503183004 | 26 | 1 | 0.0 | 11.3 | 0.00 | 0.00 | 0.00 | 36 | 1021.6 |
| 20260503182904 | 26 | 359 | 0.0 | 11.3 | 0.00 | 0.00 | 0.00 | 37 | 1021.7 |
| 20260503182804 | 26 | 351 | 1.6 | 11.3 | 0.00 | 0.00 | 0.00 | 37 | 1021.7 |
| 20260503182704 | 26 | 8 | 1.6 | 17.7 | 0.00 | 0.00 | 0.00 | 40 | 1021.7 |
| 20260503182604 | 26 | 20 | 1.6 | 17.7 | 0.00 | 0.00 | 0.00 | 40 | 1021.7 |
| 20260503182525 | 26 | 11 | 1.6 | 17.7 | 0.00 | 0.00 | 0.00 | 41 | 1021.7 |
| 20260503182404 | 25 | 11 | 1.6 | 17.7 | 0.00 | 0.00 | 0.00 | 39 | 1021.7 |
| 20260503182305 | 25 | 6 | 1.6 | 17.7 | 0.00 | 0.00 | 0.00 | 40 | 1021.8 |
| 20260503182204 | 25 | 6 | 1.6 | 17.7 | 0.00 | 0.00 | 0.00 | 39 | 1021.8 |
| 20260503182104 | 25 | 356 | 1.6 | 17.7 | 0.00 | 0.00 | 0.00 | 39 | 1021.7 |
| 20260503182005 | 25 | 349 | 1.6 | 17.7 | 0.00 | 0.00 | 0.00 | 39 | 1021.8 |
| 20260503181904 | 25 | 353 | 1.6 | 17.7 | 0.00 | 0.00 | 0.00 | 40 | 1021.8 |
| 20260503181804 | 25 | 356 | 1.6 | 17.7 | 0.00 | 0.00 | 0.00 | 43 | 1021.8 |
| 20260503181704 | 25 | 354 | 1.6 | 17.7 | 0.00 | 0.00 | 0.00 | 42 | 1021.8 |
| 20260503181604 | 25 | 355 | 1.6 | 14.5 | 0.00 | 0.00 | 0.00 | 42 | 1021.8 |
| 20260503181505 | 25 | 10 | 1.6 | 14.5 | 0.00 | 0.00 | 0.00 | 41 | 1021.8 |
| 20260503181404 | 25 | 16 | 1.6 | 14.5 | 0.00 | 0.00 | 0.00 | 42 | 1021.8 |
| 20260503181304 | 25 | 27 | 1.6 | 14.5 | 0.00 | 0.00 | 0.00 | 41 | 1021.9 |
| 20260503181204 | 25 | 35 | 3.2 | 16.1 | 0.00 | 0.00 | 0.00 | 42 | 1021.9 |
| 20260503181104 | 25 | 36 | 3.2 | 16.1 | 0.00 | 0.00 | 0.00 | 42 | 1022.0 |
| 20260503181004 | 25 | 42 | 3.2 | 16.1 | 0.00 | 0.00 | 0.00 | 42 | 1022.0 |
| 20260503180925 | 25 | 42 | 3.2 | 16.1 | 0.00 | 0.00 | 0.00 | 42 | 1022.1 |
| 20260503180804 | 25 | 51 | 3.2 | 16.1 | 0.00 | 0.00 | 0.00 | 42 | 1022.1 |
| 20260503180725 | 25 | 52 | 1.6 | 16.1 | 0.00 | 0.00 | 0.00 | 42 | 1022.1 |
| 20260503180604 | 25 | 47 | 1.6 | 16.1 | 0.00 | 0.00 | 0.00 | 42 | 1022.2 |
| 20260503180525 | 25 | 45 | 1.6 | 16.1 | 0.00 | 0.00 | 0.00 | 43 | 1022.2 |
| 20260503180425 | 25 | 44 | 1.6 | 16.1 | 0.00 | 0.00 | 0.00 | 44 | 1022.2 |
| 20260503180304 | 25 | 41 | 1.6 | 16.1 | 0.00 | 0.00 | 0.00 | 44 | 1022.2 |
| 20260503180204 | 25 | 26 | 0.0 | 16.1 | 0.00 | 0.00 | 0.00 | 43 | 1022.2 |
| 20260503180104 | 25 | 42 | 1.6 | 11.3 | 0.00 | 0.00 | 0.00 | 44 | 1022.2 |
| 20260503180004 | 25 | 49 | 1.6 | 14.5 | 0.00 | 0.00 | 0.00 | 43 | 1022.2 |
| 20260503175925 | 25 | 49 | 1.6 | 14.5 | 0.00 | 0.00 | 0.00 | 43 | 1022.2 |
| 20260503175804 | 25 | 49 | 1.6 | 14.5 | 0.00 | 0.00 | 0.00 | 41 | 1022.2 |
| 20260503175704 | 25 | 35 | 1.6 | 14.5 | 0.00 | 0.00 | 0.00 | 40 | 1022.2 |
| 20260503175604 | 25 | 31 | 1.6 | 14.5 | 0.00 | 0.00 | 0.00 | 40 | 1022.3 |
| 20260503175504 | 25 | 30 | 1.6 | 14.5 | 0.00 | 0.00 | 0.00 | 41 | 1022.3 |
| 20260503175404 | 25 | 31 | 1.6 | 14.5 | 0.00 | 0.00 | 0.00 | 43 | 1022.3 |
| 20260503175305 | 25 | 32 | 1.6 | 14.5 | 0.00 | 0.00 | 0.00 | 42 | 1022.3 |
| 20260503175204 | 25 | 32 | 1.6 | 14.5 | 0.00 | 0.00 | 0.00 | 41 | 1022.3 |
| 20260503175104 | 25 | 26 | 1.6 | 14.5 | 0.00 | 0.00 | 0.00 | 42 | 1022.3 |
| 20260503175004 | 25 | 353 | 1.6 | 14.5 | 0.00 | 0.00 | 0.00 | 41 | 1022.4 |
| 20260503174904 | 25 | 346 | 1.6 | 14.5 | 0.00 | 0.00 | 0.00 | 41 | 1022.4 |
| 20260503174804 | 25 | 344 | 1.6 | 14.5 | 0.00 | 0.00 | 0.00 | 41 | 1022.5 |
| 20260503174704 | 25 | 349 | 1.6 | 14.5 | 0.00 | 0.00 | 0.00 | 40 | 1022.4 |
| 20260503174625 | 25 | 355 | 1.6 | 14.5 | 0.00 | 0.00 | 0.00 | 40 | 1022.4 |
| 20260503174504 | 25 | 5 | 1.6 | 14.5 | 0.00 | 0.00 | 0.00 | 42 | 1022.5 |
| 20260503174404 | 25 | 6 | 1.6 | 14.5 | 0.00 | 0.00 | 0.00 | 40 | 1022.4 |
| 20260503174304 | 25 | 10 | 3.2 | 19.3 | 0.00 | 0.00 | 0.00 | 42 | 1022.4 |
| 20260503174204 | 25 | 10 | 1.6 | 19.3 | 0.00 | 0.00 | 0.00 | 40 | 1022.4 |
| 20260503174104 | 25 | 6 | 1.6 | 19.3 | 0.00 | 0.00 | 0.00 | 40 | 1022.5 |
| 20260503174004 | 25 | 21 | 1.6 | 19.3 | 0.00 | 0.00 | 0.00 | 40 | 1022.5 |
| 20260503173904 | 25 | 40 | 1.6 | 19.3 | 0.00 | 0.00 | 0.00 | 42 | 1022.5 |
| 20260503173804 | 25 | 40 | 1.6 | 19.3 | 0.00 | 0.00 | 0.00 | 41 | 1022.5 |
| 20260503173704 | 25 | 41 | 1.6 | 19.3 | 0.00 | 0.00 | 0.00 | 41 | 1022.5 |
| 20260503173625 | 25 | 40 | 3.2 | 19.3 | 0.00 | 0.00 | 0.00 | 41 | 1022.6 |
| 20260503173525 | 25 | 36 | 3.2 | 19.3 | 0.00 | 0.00 | 0.00 | 41 | 1022.6 |
| 20260503173425 | 25 | 35 | 3.2 | 19.3 | 0.00 | 0.00 | 0.00 | 39 | 1022.6 |
| 20260503173325 | 25 | 37 | 1.6 | 19.3 | 0.00 | 0.00 | 0.00 | 41 | 1022.6 |
| 20260503173204 | 25 | 36 | 3.2 | 17.7 | 0.00 | 0.00 | 0.00 | 40 | 1022.6 |
| 20260503173104 | 25 | 37 | 3.2 | 17.7 | 0.00 | 0.00 | 0.00 | 42 | 1022.6 |
| 20260503173004 | 25 | 39 | 3.2 | 17.7 | 0.00 | 0.00 | 0.00 | 41 | 1022.6 |
| 20260503172904 | 25 | 31 | 1.6 | 16.1 | 0.00 | 0.00 | 0.00 | 42 | 1022.6 |
| 20260503172825 | 25 | 31 | 1.6 | 16.1 | 0.00 | 0.00 | 0.00 | 41 | 1022.6 |
| 20260503172725 | 25 | 31 | 1.6 | 16.1 | 0.00 | 0.00 | 0.00 | 41 | 1022.6 |
| 20260503172604 | 25 | 32 | 0.0 | 16.1 | 0.00 | 0.00 | 0.00 | 41 | 1022.6 |
| 20260503172525 | 25 | 26 | 0.0 | 16.1 | 0.00 | 0.00 | 0.00 | 42 | 1022.7 |
| 20260503172404 | 25 | 34 | 1.6 | 16.1 | 0.00 | 0.00 | 0.00 | 43 | 1022.7 |
| 20260503172305 | 25 | 35 | 1.6 | 16.1 | 0.00 | 0.00 | 0.00 | 43 | 1022.7 |
| 20260503172204 | 25 | 36 | 1.6 | 11.3 | 0.00 | 0.00 | 0.00 | 44 | 1022.7 |
| 20260503172104 | 25 | 38 | 1.6 | 11.3 | 0.00 | 0.00 | 0.00 | 43 | 1022.7 |
| 20260503172025 | 25 | 37 | 1.6 | 11.3 | 0.00 | 0.00 | 0.00 | 43 | 1022.7 |
| 20260503171904 | 25 | 36 | 1.6 | 11.3 | 0.00 | 0.00 | 0.00 | 43 | 1022.8 |
| 20260503171804 | 25 | 35 | 1.6 | 11.3 | 0.00 | 0.00 | 0.00 | 45 | 1022.8 |
| 20260503171704 | 24 | 35 | 1.6 | 11.3 | 0.00 | 0.00 | 0.00 | 44 | 1022.8 |
| 20260503171604 | 24 | 36 | 1.6 | 11.3 | 0.00 | 0.00 | 0.00 | 45 | 1022.8 |
| 20260503171504 | 24 | 36 | 1.6 | 11.3 | 0.00 | 0.00 | 0.00 | 44 | 1022.8 |
| 20260503171404 | 24 | 33 | 1.6 | 9.7 | 0.00 | 0.00 | 0.00 | 45 | 1022.8 |
| 20260503171325 | 24 | 32 | 0.0 | 9.7 | 0.00 | 0.00 | 0.00 | 45 | 1022.8 |
| 20260503171204 | 25 | 31 | 0.0 | 9.7 | 0.00 | 0.00 | 0.00 | 46 | 1022.8 |
| 20260503171104 | 25 | 30 | 0.0 | 8.0 | 0.00 | 0.00 | 0.00 | 45 | 1022.8 |
| 20260503171004 | 25 | 36 | 0.0 | 9.7 | 0.00 | 0.00 | 0.00 | 44 | 1022.8 |
| 20260503170904 | 25 | 355 | 0.0 | 9.7 | 0.00 | 0.00 | 0.00 | 45 | 1022.8 |
| 20260503170804 | 25 | 348 | 0.0 | 9.7 | 0.00 | 0.00 | 0.00 | 46 | 1022.8 |
| 20260503170704 | 25 | 348 | 0.0 | 9.7 | 0.00 | 0.00 | 0.00 | 45 | 1022.8 |
| 20260503170604 | 25 | 340 | 0.0 | 9.7 | 0.00 | 0.00 | 0.00 | 46 | 1022.8 |
| 20260503170504 | 25 | 340 | 0.0 | 9.7 | 0.00 | 0.00 | 0.00 | 47 | 1022.9 |
| 20260503170404 | 25 | 340 | 0.0 | 9.7 | 0.00 | 0.00 | 0.00 | 46 | 1022.9 |
| 20260503170304 | 25 | 341 | 0.0 | 9.7 | 0.00 | 0.00 | 0.00 | 47 | 1022.9 |
| 20260503170204 | 25 | 341 | 0.0 | 9.7 | 0.00 | 0.00 | 0.00 | 47 | 1022.9 |
| 20260503170104 | 25 | 340 | 0.0 | 9.7 | 0.00 | 0.00 | 0.00 | 46 | 1022.9 |
| 20260503160204 | 23 | 51 | 0.0 | 11.3 | 0.00 | 0.00 | 0.00 | 47 | 1023.5 |
| 20260503160104 | 23 | 53 | 0.0 | 11.3 | 0.00 | 0.00 | 0.00 | 49 | 1023.5 |
| 20260503151004 | 22 | 51 | 4.8 | 19.3 | 0.00 | 0.00 | 0.00 | 50 | 1023.3 |
| 20260503150904 | 22 | 51 | 3.2 | 19.3 | 0.00 | 0.00 | 0.00 | 51 | 1023.2 |
| 20260503150825 | 22 | 53 | 1.6 | 17.7 | 0.00 | 0.00 | 0.00 | 51 | 1023.2 |
| 20260503150704 | 22 | 56 | 1.6 | 14.5 | 0.00 | 0.00 | 0.00 | 51 | 1023.2 |
| 20260503150604 | 22 | 55 | 0.0 | 12.9 | 0.00 | 0.00 | 0.00 | 52 | 1023.2 |
| 20260503150504 | 22 | 46 | 0.0 | 3.2 | 0.00 | 0.00 | 0.00 | 53 | 1023.2 |
| 20260503150404 | 21 | 46 | 0.0 | 3.2 | 0.00 | 0.00 | 0.00 | 53 | 1023.3 |
| 20260503150303 | 21 | 47 | 0.0 | 3.2 | 0.00 | 0.00 | 0.00 | 52 | 1023.2 |
| 20260503150204 | 21 | 54 | 0.0 | 4.8 | 0.00 | 0.00 | 0.00 | 52 | 1023.2 |
| 20260503150104 | 21 | 63 | 1.6 | 8.0 | 0.00 | 0.00 | 0.00 | 51 | 1023.2 |
| 20260503140304 | 20 | 71 | 0.0 | 4.8 | 0.00 | 0.00 | 0.00 | 55 | 1022.9 |
| 20260503140204 | 20 | 71 | 1.6 | 4.8 | 0.00 | 0.00 | 0.00 | 54 | 1022.9 |
| 20260503140104 | 20 | 70 | 1.6 | 9.7 | 0.00 | 0.00 | 0.00 | 54 | 1022.9 |
| 20260503131404 | 17 | 98 | 0.0 | 4.8 | 0.00 | 0.00 | 0.00 | 55 | 1022.8 |
| 20260503131304 | 17 | 98 | 0.0 | 4.8 | 0.00 | 0.00 | 0.00 | 55 | 1022.8 |
| 20260503131204 | 17 | 98 | 0.0 | 4.8 | 0.00 | 0.00 | 0.00 | 55 | 1022.8 |
| 20260503131104 | 17 | 98 | 0.0 | 4.8 | 0.00 | 0.00 | 0.00 | 55 | 1022.8 |
| 20260503131004 | 17 | 98 | 0.0 | 4.8 | 0.00 | 0.00 | 0.00 | 54 | 1022.8 |
| 20260503130904 | 18 | 98 | 0.0 | 4.8 | 0.00 | 0.00 | 0.00 | 55 | 1022.8 |
| 20260503130804 | 18 | 98 | 0.0 | 4.8 | 0.00 | 0.00 | 0.00 | 54 | 1022.8 |
| 20260503130704 | 18 | 98 | 0.0 | 4.8 | 0.00 | 0.00 | 0.00 | 54 | 1022.7 |
| 20260503130604 | 18 | 98 | 0.0 | 4.8 | 0.00 | 0.00 | 0.00 | 54 | 1022.7 |
| 20260503130525 | 18 | 0 | 0.0 | 0.0 | 0.00 | 0.00 | 0.00 | 53 | 1022.7 |
| 20260503130404 | 18 | 0 | 0.0 | 0.0 | 0.00 | 0.00 | 0.00 | 53 | 1022.7 |
| 20260503130325 | 18 | 0 | 0.0 | 0.0 | 0.00 | 0.00 | 0.00 | 53 | 1022.7 |
| 20260503130204 | 18 | 0 | 0.0 | 0.0 | 0.00 | 0.00 | 0.00 | 53 | 1022.7 |
| 20260503130104 | 18 | 0 | 0.0 | 0.0 | 0.00 | 0.00 | 0.00 | 52 | 1022.7 |
| 20260503120204 | 13 | 0 | 0.0 | 0.0 | 0.00 | 0.00 | 0.00 | 44 | 1022.1 |
| 20260503120103 | 13 | 0 | 0.0 | 0.0 | 0.00 | 0.00 | 0.00 | 44 | 1022.1 |
| 20260503110825 | 13 | 0 | 0.0 | 0.0 | 0.00 | 0.00 | 0.00 | 42 | 1021.9 |
| 20260503110704 | 13 | 0 | 0.0 | 0.0 | 0.00 | 0.00 | 0.00 | 43 | 1021.8 |
| 20260503110604 | 13 | 0 | 0.0 | 0.0 | 0.00 | 0.00 | 0.00 | 43 | 1021.8 |
| 20260503110503 | 13 | 0 | 0.0 | 0.0 | 0.00 | 0.00 | 0.00 | 43 | 1021.8 |
| 20260503110404 | 13 | 0 | 0.0 | 0.0 | 0.00 | 0.00 | 0.00 | 43 | 1021.8 |
| 20260503110303 | 13 | 0 | 0.0 | 0.0 | 0.00 | 0.00 | 0.00 | 43 | 1021.8 |
| 20260503110204 | 13 | 0 | 0.0 | 0.0 | 0.00 | 0.00 | 0.00 | 44 | 1021.8 |
| 20260503110104 | 13 | 0 | 0.0 | 0.0 | 0.00 | 0.00 | 0.00 | 44 | 1021.8 |
| 20260503100204 | 14 | 96 | 0.0 | 1.6 | 0.00 | 0.00 | 0.00 | 46 | 1021.3 |
| 20260503100104 | 14 | 96 | 0.0 | 1.6 | 0.00 | 0.00 | 0.00 | 46 | 1021.4 |
| 20260503090504 | 15 | 0 | 0.0 | 0.0 | 0.00 | 0.00 | 0.00 | 51 | 1021.3 |
| 20260503090404 | 15 | 0 | 0.0 | 0.0 | 0.00 | 0.00 | 0.00 | 51 | 1021.3 |
| 20260503090325 | 15 | 0 | 0.0 | 0.0 | 0.00 | 0.00 | 0.00 | 51 | 1021.3 |
| 20260503090204 | 15 | 0 | 0.0 | 0.0 | 0.00 | 0.00 | 0.00 | 51 | 1021.3 |
| 20260503090104 | 15 | 0 | 0.0 | 0.0 | 0.00 | 0.00 | 0.00 | 51 | 1021.4 |
| 20260503081604 | 15 | 0 | 0.0 | 0.0 | 0.00 | 0.00 | 0.00 | 45 | 1021.4 |
| 20260503081503 | 15 | 0 | 0.0 | 0.0 | 0.00 | 0.00 | 0.00 | 45 | 1021.4 |
| 20260503081404 | 15 | 0 | 0.0 | 0.0 | 0.00 | 0.00 | 0.00 | 45 | 1021.4 |
| 20260503081304 | 15 | 0 | 0.0 | 0.0 | 0.00 | 0.00 | 0.00 | 45 | 1021.5 |
| 20260503081203 | 15 | 0 | 0.0 | 0.0 | 0.00 | 0.00 | 0.00 | 45 | 1021.5 |
| 20260503081125 | 15 | 0 | 0.0 | 0.0 | 0.00 | 0.00 | 0.00 | 45 | 1021.5 |
| 20260503081004 | 15 | 0 | 0.0 | 0.0 | 0.00 | 0.00 | 0.00 | 45 | 1021.4 |
| 20260503080904 | 15 | 0 | 0.0 | 0.0 | 0.00 | 0.00 | 0.00 | 44 | 1021.4 |
| 20260503080824 | 15 | 0 | 0.0 | 0.0 | 0.00 | 0.00 | 0.00 | 44 | 1021.4 |
| 20260503080725 | 15 | 0 | 0.0 | 0.0 | 0.00 | 0.00 | 0.00 | 44 | 1021.4 |
| 20260503080604 | 15 | 0 | 0.0 | 0.0 | 0.00 | 0.00 | 0.00 | 44 | 1021.4 |
| 20260503080504 | 15 | 0 | 0.0 | 0.0 | 0.00 | 0.00 | 0.00 | 44 | 1021.4 |
| 20260503080403 | 15 | 0 | 0.0 | 0.0 | 0.00 | 0.00 | 0.00 | 44 | 1021.5 |
| 20260503080324 | 15 | 0 | 0.0 | 0.0 | 0.00 | 0.00 | 0.00 | 44 | 1021.5 |
| 20260503080204 | 15 | 0 | 0.0 | 0.0 | 0.00 | 0.00 | 0.00 | 44 | 1021.5 |
| 20260503080104 | 15 | 0 | 0.0 | 0.0 | 0.00 | 0.00 | 0.00 | 44 | 1021.5 |
| 20260503072904 | 14 | 0 | 0.0 | 0.0 | 0.00 | 0.00 | 0.00 | 35 | 1021.7 |
| 20260503072803 | 14 | 0 | 0.0 | 0.0 | 0.00 | 0.00 | 0.00 | 36 | 1021.7 |
| 20260503072704 | 14 | 0 | 0.0 | 0.0 | 0.00 | 0.00 | 0.00 | 35 | 1021.7 |
| 20260503072603 | 14 | 0 | 0.0 | 0.0 | 0.00 | 0.00 | 0.00 | 35 | 1021.6 |
| 20260503072504 | 14 | 0 | 0.0 | 0.0 | 0.00 | 0.00 | 0.00 | 36 | 1021.6 |
| 20260503072425 | 14 | 0 | 0.0 | 0.0 | 0.00 | 0.00 | 0.00 | 36 | 1021.6 |
| 20260503072305 | 14 | 0 | 0.0 | 0.0 | 0.00 | 0.00 | 0.00 | 36 | 1021.7 |
| 20260503072204 | 14 | 0 | 0.0 | 0.0 | 0.00 | 0.00 | 0.00 | 36 | 1021.7 |
| 20260503072104 | 14 | 0 | 0.0 | 0.0 | 0.00 | 0.00 | 0.00 | 37 | 1021.6 |
| 20260503072004 | 14 | 0 | 0.0 | 0.0 | 0.00 | 0.00 | 0.00 | 38 | 1021.6 |
| 20260503071903 | 14 | 0 | 0.0 | 0.0 | 0.00 | 0.00 | 0.00 | 39 | 1021.6 |
| 20260503071803 | 15 | 0 | 0.0 | 0.0 | 0.00 | 0.00 | 0.00 | 40 | 1021.7 |
| 20260503071725 | 15 | 0 | 0.0 | 0.0 | 0.00 | 0.00 | 0.00 | 41 | 1021.6 |
| 20260503071625 | 15 | 0 | 0.0 | 0.0 | 0.00 | 0.00 | 0.00 | 42 | 1021.7 |
| 20260503071504 | 15 | 0 | 0.0 | 0.0 | 0.00 | 0.00 | 0.00 | 43 | 1021.7 |
| 20260503071403 | 15 | 0 | 0.0 | 0.0 | 0.00 | 0.00 | 0.00 | 43 | 1021.7 |
| 20260503071325 | 15 | 0 | 0.0 | 0.0 | 0.00 | 0.00 | 0.00 | 43 | 1021.7 |
| 20260503071204 | 15 | 0 | 0.0 | 0.0 | 0.00 | 0.00 | 0.00 | 43 | 1021.7 |
| 20260503071125 | 15 | 0 | 0.0 | 0.0 | 0.00 | 0.00 | 0.00 | 44 | 1021.8 |
| 20260503071004 | 15 | 0 | 0.0 | 0.0 | 0.00 | 0.00 | 0.00 | 44 | 1021.8 |
| 20260503070904 | 15 | 0 | 0.0 | 0.0 | 0.00 | 0.00 | 0.00 | 44 | 1021.8 |
| 20260503070803 | 15 | 0 | 0.0 | 0.0 | 0.00 | 0.00 | 0.00 | 44 | 1021.8 |
| 20260503070703 | 15 | 0 | 0.0 | 0.0 | 0.00 | 0.00 | 0.00 | 44 | 1021.8 |
| 20260503070625 | 15 | 0 | 0.0 | 0.0 | 0.00 | 0.00 | 0.00 | 45 | 1021.8 |
| 20260503070504 | 15 | 0 | 0.0 | 0.0 | 0.00 | 0.00 | 0.00 | 45 | 1021.7 |
| 20260503070403 | 15 | 0 | 0.0 | 0.0 | 0.00 | 0.00 | 0.00 | 45 | 1021.8 |
| 20260503070303 | 15 | 0 | 0.0 | 0.0 | 0.00 | 0.00 | 0.00 | 44 | 1021.8 |
| 20260503070203 | 15 | 0 | 0.0 | 0.0 | 0.00 | 0.00 | 0.00 | 44 | 1021.8 |
| 20260503070104 | 15 | 0 | 0.0 | 0.0 | 0.00 | 0.00 | 0.00 | 44 | 1021.9 |
| 20260503060304 | 15 | 0 | 0.0 | 0.0 | 0.00 | 0.00 | 0.00 | 43 | 1021.9 |
| 20260503060204 | 15 | 0 | 0.0 | 0.0 | 0.00 | 0.00 | 0.00 | 43 | 1021.9 |
| 20260503060103 | 15 | 0 | 0.0 | 0.0 | 0.00 | 0.00 | 0.00 | 43 | 1021.8 |
| 20260503055125 | 15 | 0 | 0.0 | 0.0 | 0.00 | 0.00 | 0.00 | 41 | 1021.8 |
| 20260503055025 | 15 | 0 | 0.0 | 0.0 | 0.00 | 0.00 | 0.00 | 41 | 1021.8 |
| 20260503054904 | 15 | 0 | 0.0 | 0.0 | 0.00 | 0.00 | 0.00 | 41 | 1021.8 |
| 20260503054803 | 15 | 0 | 0.0 | 0.0 | 0.00 | 0.00 | 0.00 | 41 | 1021.8 |
| 20260503054725 | 15 | 0 | 0.0 | 0.0 | 0.00 | 0.00 | 0.00 | 42 | 1021.8 |
| 20260503054603 | 15 | 0 | 0.0 | 0.0 | 0.00 | 0.00 | 0.00 | 43 | 1021.9 |
| 20260503054504 | 15 | 0 | 0.0 | 0.0 | 0.00 | 0.00 | 0.00 | 43 | 1021.9 |
| 20260503054404 | 15 | 0 | 0.0 | 0.0 | 0.00 | 0.00 | 0.00 | 43 | 1021.9 |
| 20260503054303 | 15 | 0 | 0.0 | 0.0 | 0.00 | 0.00 | 0.00 | 45 | 1022.0 |
| 20260503054203 | 16 | 0 | 0.0 | 0.0 | 0.00 | 0.00 | 0.00 | 45 | 1021.9 |
| 20260503054104 | 16 | 0 | 0.0 | 0.0 | 0.00 | 0.00 | 0.00 | 46 | 1021.9 |
| 20260503054004 | 16 | 0 | 0.0 | 0.0 | 0.00 | 0.00 | 0.00 | 47 | 1021.9 |
| 20260503053925 | 16 | 0 | 0.0 | 0.0 | 0.00 | 0.00 | 0.00 | 48 | 1021.9 |
| 20260503053803 | 16 | 0 | 0.0 | 0.0 | 0.00 | 0.00 | 0.00 | 48 | 1021.9 |
| 20260503053704 | 16 | 0 | 0.0 | 0.0 | 0.00 | 0.00 | 0.00 | 48 | 1021.8 |
| 20260503053624 | 16 | 0 | 0.0 | 0.0 | 0.00 | 0.00 | 0.00 | 48 | 1021.8 |
| 20260503053503 | 16 | 0 | 0.0 | 0.0 | 0.00 | 0.00 | 0.00 | 48 | 1021.9 |
| 20260503053404 | 16 | 0 | 0.0 | 0.0 | 0.00 | 0.00 | 0.00 | 48 | 1021.9 |
| 20260503053303 | 16 | 0 | 0.0 | 0.0 | 0.00 | 0.00 | 0.00 | 47 | 1021.9 |
| 20260503053204 | 16 | 0 | 0.0 | 0.0 | 0.00 | 0.00 | 0.00 | 47 | 1021.9 |